Wetterdaten: Dienstag, 15.05.2012
Datum Zeit Temp. Innen Temp. Aussen UV X Diff Temp. Feuchte Inne Feuchte Auss Sonnenschein Luftdruck Regen ab 0,1 Wind Sonnenschein T Regendauer Windben
15.05.2012 00:00 19,6 C 11,1 C 0,0 UV-I 0,0 C 42 % 68 % 0 % 1012,1 hPa 0,0 l/m 0,0 km/h (0 Bft) 0 min 0 min 0,0 km/h (0 Bft)
15.05.2012 00:02 19,6 C 11,1 C 0,0 UV-I 0,0 C 42 % 68 % 0 % 1012,1 hPa 0,0 l/m 0,0 km/h (0 Bft) 0 min 0 min 0,0 km/h (0 Bft)
15.05.2012 00:04 19,6 C 11,1 C 0,0 UV-I 0,0 C 42 % 68 % 0 % 1012,1 hPa 0,0 l/m 0,0 km/h (0 Bft) 0 min 0 min 0,0 km/h (0 Bft)
15.05.2012 00:06 19,6 C 11,0 C 0,0 UV-I 0,0 C 42 % 69 % 0 % 1012,1 hPa 0,0 l/m 0,0 km/h (0 Bft) 0 min 0 min 0,0 km/h (0 Bft)
15.05.2012 00:08 19,6 C 10,9 C 0,0 UV-I 0,0 C 42 % 69 % 0 % 1012,1 hPa 0,0 l/m 0,0 km/h (0 Bft) 0 min 0 min 6,4 km/h (2 Bft)
15.05.2012 00:10 19,6 C 10,9 C 0,0 UV-I 0,0 C 42 % 69 % 0 % 1012,1 hPa 0,0 l/m 0,0 km/h (0 Bft) 0 min 0 min 6,4 km/h (2 Bft)
15.05.2012 00:12 19,6 C 10,9 C 0,0 UV-I 0,0 C 42 % 69 % 0 % 1012,1 hPa 0,0 l/m 0,0 km/h (0 Bft) 0 min 0 min 0,0 km/h (0 Bft)
15.05.2012 00:14 19,6 C 10,9 C 0,0 UV-I 0,0 C 42 % 70 % 0 % 1012,1 hPa 0,0 l/m 0,4 km/h (0 Bft) 0 min 0 min 0,0 km/h (0 Bft)
15.05.2012 00:16 19,6 C 10,9 C 0,0 UV-I 0,0 C 42 % 70 % 0 % 1012,1 hPa 0,0 l/m 0,8 km/h (0 Bft) 0 min 0 min 0,0 km/h (0 Bft)
15.05.2012 00:18 19,6 C 10,9 C 0,0 UV-I 0,0 C 42 % 71 % 0 % 1011,8 hPa 0,0 l/m 1,2 km/h (1 Bft) 0 min 0 min 6,0 km/h (2 Bft)
15.05.2012 00:20 19,5 C 10,9 C 0,0 UV-I 0,0 C 42 % 71 % 0 % 1011,8 hPa 0,0 l/m 1,2 km/h (1 Bft) 0 min 0 min 8,4 km/h (2 Bft)
15.05.2012 00:22 19,5 C 11,0 C 0,0 UV-I 0,0 C 43 % 71 % 0 % 1011,8 hPa 0,0 l/m 1,6 km/h (1 Bft) 0 min 0 min 4,0 km/h (1 Bft)
15.05.2012 00:24 19,5 C 11,1 C 0,0 UV-I 0,0 C 43 % 71 % 0 % 1011,8 hPa 0,0 l/m 1,6 km/h (1 Bft) 0 min 0 min 4,0 km/h (1 Bft)
15.05.2012 00:26 19,5 C 11,0 C 0,0 UV-I 0,0 C 43 % 71 % 0 % 1011,8 hPa 0,0 l/m 1,2 km/h (1 Bft) 0 min 0 min 0,0 km/h (0 Bft)
15.05.2012 00:28 19,5 C 11,0 C 0,0 UV-I 0,0 C 43 % 71 % 0 % 1011,8 hPa 0,0 l/m 0,8 km/h (0 Bft) 0 min 0 min 0,0 km/h (0 Bft)
15.05.2012 00:30 19,5 C 11,0 C 0,0 UV-I 0,0 C 43 % 71 % 0 % 1011,8 hPa 0,0 l/m 0,4 km/h (0 Bft) 0 min 0 min 9,2 km/h (2 Bft)
15.05.2012 00:32 19,5 C 11,0 C 0,0 UV-I 0,0 C 43 % 72 % 0 % 1011,8 hPa 0,0 l/m 0,4 km/h (0 Bft) 0 min 0 min 0,0 km/h (0 Bft)
15.05.2012 00:34 19,5 C 11,0 C 0,0 UV-I 0,0 C 43 % 72 % 0 % 1011,8 hPa 0,0 l/m 0,4 km/h (0 Bft) 0 min 0 min 0,0 km/h (0 Bft)
15.05.2012 00:36 19,5 C 11,0 C 0,0 UV-I 0,0 C 43 % 72 % 0 % 1011,8 hPa 0,0 l/m 0,4 km/h (0 Bft) 0 min 0 min 0,0 km/h (0 Bft)
15.05.2012 00:38 19,5 C 11,1 C 0,0 UV-I 0,0 C 43 % 72 % 0 % 1011,9 hPa 0,0 l/m 0,4 km/h (0 Bft) 0 min 0 min 0,0 km/h (0 Bft)
15.05.2012 00:40 19,4 C 11,0 C 0,0 UV-I 0,0 C 43 % 72 % 0 % 1011,9 hPa 0,0 l/m 0,4 km/h (0 Bft) 0 min 0 min 0,0 km/h (0 Bft)
15.05.2012 00:42 19,5 C 11,1 C 0,0 UV-I 0,0 C 43 % 72 % 0 % 1011,9 hPa 0,0 l/m 0,4 km/h (0 Bft) 0 min 0 min 0,0 km/h (0 Bft)
15.05.2012 00:44 19,5 C 11,1 C 0,0 UV-I 0,0 C 43 % 73 % 0 % 1011,9 hPa 0,0 l/m 0,0 km/h (0 Bft) 0 min 0 min 0,0 km/h (0 Bft)
15.05.2012 00:46 19,4 C 11,0 C 0,0 UV-I 0,0 C 43 % 73 % 0 % 1011,9 hPa 0,0 l/m 0,0 km/h (0 Bft) 0 min 0 min 0,0 km/h (0 Bft)
15.05.2012 00:48 19,4 C 10,9 C 0,0 UV-I 0,0 C 43 % 73 % 0 % 1011,9 hPa 0,0 l/m 0,0 km/h (0 Bft) 0 min 0 min 0,0 km/h (0 Bft)
15.05.2012 00:50 19,4 C 10,9 C 0,0 UV-I 0,0 C 43 % 73 % 0 % 1011,9 hPa 0,0 l/m 0,0 km/h (0 Bft) 0 min 0 min 0,0 km/h (0 Bft)
15.05.2012 00:52 19,4 C 10,9 C 0,0 UV-I 0,0 C 43 % 73 % 0 % 1011,9 hPa 0,0 l/m 0,0 km/h (0 Bft) 0 min 0 min 0,0 km/h (0 Bft)
15.05.2012 00:54 19,4 C 10,8 C 0,0 UV-I 0,0 C 43 % 73 % 0 % 1011,9 hPa 0,0 l/m 0,0 km/h (0 Bft) 0 min 0 min 0,0 km/h (0 Bft)
15.05.2012 00:56 19,4 C 10,8 C 0,0 UV-I 0,0 C 43 % 73 % 0 % 1011,9 hPa 0,0 l/m 0,0 km/h (0 Bft) 0 min 0 min 0,0 km/h (0 Bft)
15.05.2012 00:58 19,4 C 10,8 C 0,0 UV-I 0,0 C 43 % 74 % 0 % 1012,1 hPa 0,0 l/m 0,0 km/h (0 Bft) 0 min 0 min 0,0 km/h (0 Bft)
15.05.2012 01:00 19,4 C 10,7 C 0,0 UV-I 0,0 C 44 % 74 % 0 % 1012,1 hPa 0,0 l/m 0,0 km/h (0 Bft) 0 min 0 min 0,0 km/h (0 Bft)
15.05.2012 01:02 19,4 C 10,7 C 0,0 UV-I 0,0 C 44 % 74 % 0 % 1012,1 hPa 0,0 l/m 0,0 km/h (0 Bft) 0 min 0 min 0,0 km/h (0 Bft)
15.05.2012 01:04 19,4 C 10,6 C 0,0 UV-I 0,0 C 44 % 74 % 0 % 1012,1 hPa 0,0 l/m 0,0 km/h (0 Bft) 0 min 0 min 0,0 km/h (0 Bft)
15.05.2012 01:06 19,4 C 10,7 C 0,0 UV-I 0,0 C 44 % 74 % 0 % 1012,1 hPa 0,0 l/m 0,0 km/h (0 Bft) 0 min 0 min 5,6 km/h (1 Bft)
15.05.2012 01:08 19,4 C 10,6 C 0,0 UV-I 0,0 C 44 % 74 % 0 % 1012,1 hPa 0,0 l/m 0,0 km/h (0 Bft) 0 min 0 min 5,6 km/h (1 Bft)
15.05.2012 01:10 19,4 C 10,5 C 0,0 UV-I 0,0 C 44 % 74 % 0 % 1012,1 hPa 0,0 l/m 0,0 km/h (0 Bft) 0 min 0 min 0,0 km/h (0 Bft)
15.05.2012 01:12 19,4 C 10,5 C 0,0 UV-I 0,0 C 44 % 75 % 0 % 1012,1 hPa 0,0 l/m 0,0 km/h (0 Bft) 0 min 0 min 0,0 km/h (0 Bft)
15.05.2012 01:14 19,4 C 10,4 C 0,0 UV-I 0,0 C 44 % 75 % 0 % 1012,1 hPa 0,0 l/m 0,0 km/h (0 Bft) 0 min 0 min 0,0 km/h (0 Bft)
15.05.2012 01:16 19,2 C 10,4 C 0,0 UV-I 0,0 C 44 % 75 % 0 % 1012,1 hPa 0,0 l/m 0,0 km/h (0 Bft) 0 min 0 min 0,0 km/h (0 Bft)
15.05.2012 01:18 19,2 C 10,4 C 0,0 UV-I 0,0 C 44 % 75 % 0 % 1011,9 hPa 0,0 l/m 0,0 km/h (0 Bft) 0 min 0 min 0,0 km/h (0 Bft)
15.05.2012 01:20 19,2 C 10,4 C 0,0 UV-I 0,0 C 44 % 75 % 0 % 1011,9 hPa 0,0 l/m 0,0 km/h (0 Bft) 0 min 0 min 0,0 km/h (0 Bft)
15.05.2012 01:22 19,2 C 10,3 C 0,0 UV-I 0,0 C 44 % 75 % 0 % 1011,9 hPa 0,0 l/m 0,0 km/h (0 Bft) 0 min 0 min 0,0 km/h (0 Bft)
15.05.2012 01:24 19,2 C 10,3 C 0,0 UV-I 0,0 C 44 % 75 % 0 % 1011,9 hPa 0,0 l/m 0,0 km/h (0 Bft) 0 min 0 min 0,0 km/h (0 Bft)
15.05.2012 01:26 19,2 C 10,3 C 0,0 UV-I 0,0 C 44 % 76 % 0 % 1011,9 hPa 0,0 l/m 0,0 km/h (0 Bft) 0 min 0 min 0,0 km/h (0 Bft)
15.05.2012 01:28 19,3 C 10,3 C 0,0 UV-I 0,0 C 44 % 76 % 0 % 1011,9 hPa 0,0 l/m 0,0 km/h (0 Bft) 0 min 0 min 0,0 km/h (0 Bft)
15.05.2012 01:30 19,3 C 10,2 C 0,0 UV-I 0,0 C 44 % 76 % 0 % 1011,9 hPa 0,0 l/m 0,0 km/h (0 Bft) 0 min 0 min 0,0 km/h (0 Bft)
15.05.2012 01:32 19,2 C 10,1 C 0,0 UV-I 0,0 C 44 % 76 % 0 % 1011,9 hPa 0,0 l/m 0,0 km/h (0 Bft) 0 min 0 min 0,0 km/h (0 Bft)
15.05.2012 01:34 19,2 C 10,0 C 0,0 UV-I 0,0 C 44 % 76 % 0 % 1011,9 hPa 0,0 l/m 0,0 km/h (0 Bft) 0 min 0 min 0,0 km/h (0 Bft)
15.05.2012 01:36 19,2 C 10,0 C 0,0 UV-I 0,0 C 44 % 76 % 0 % 1011,9 hPa 0,0 l/m 0,0 km/h (0 Bft) 0 min 0 min 0,0 km/h (0 Bft)
15.05.2012 01:38 19,2 C 10,0 C 0,0 UV-I 0,0 C 44 % 76 % 0 % 1011,8 hPa 0,0 l/m 0,0 km/h (0 Bft) 0 min 0 min 0,0 km/h (0 Bft)
15.05.2012 01:40 19,2 C 10,0 C 0,0 UV-I 0,0 C 44 % 76 % 0 % 1011,8 hPa 0,0 l/m 0,0 km/h (0 Bft) 0 min 0 min 0,0 km/h (0 Bft)
15.05.2012 01:42 19,2 C 9,9 C 0,0 UV-I 0,0 C 44 % 77 % 0 % 1011,8 hPa 0,0 l/m 0,0 km/h (0 Bft) 0 min 0 min 0,0 km/h (0 Bft)
15.05.2012 01:44 19,2 C 9,9 C 0,0 UV-I 0,0 C 44 % 77 % 0 % 1011,8 hPa 0,0 l/m 0,0 km/h (0 Bft) 0 min 0 min 0,0 km/h (0 Bft)
15.05.2012 01:46 19,2 C 9,8 C 0,0 UV-I 0,0 C 45 % 77 % 0 % 1011,8 hPa 0,0 l/m 0,0 km/h (0 Bft) 0 min 0 min 0,0 km/h (0 Bft)
15.05.2012 01:48 19,2 C 9,9 C 0,0 UV-I 0,0 C 45 % 77 % 0 % 1011,8 hPa 0,0 l/m 0,0 km/h (0 Bft) 0 min 0 min 0,0 km/h (0 Bft)
15.05.2012 01:50 19,2 C 9,7 C 0,0 UV-I 0,0 C 45 % 77 % 0 % 1011,8 hPa 0,0 l/m 0,0 km/h (0 Bft) 0 min 0 min 0,0 km/h (0 Bft)
15.05.2012 01:52 19,2 C 9,7 C 0,0 UV-I 0,0 C 45 % 77 % 0 % 1011,8 hPa 0,0 l/m 0,0 km/h (0 Bft) 0 min 0 min 0,0 km/h (0 Bft)
15.05.2012 01:54 19,2 C 9,6 C 0,0 UV-I 0,0 C 45 % 77 % 0 % 1011,8 hPa 0,0 l/m 0,0 km/h (0 Bft) 0 min 0 min 0,0 km/h (0 Bft)
15.05.2012 01:56 19,2 C 9,6 C 0,0 UV-I 0,0 C 45 % 78 % 0 % 1011,8 hPa 0,0 l/m 0,0 km/h (0 Bft) 0 min 0 min 0,0 km/h (0 Bft)
15.05.2012 01:58 19,1 C 9,6 C 0,0 UV-I 0,0 C 45 % 78 % 0 % 1011,6 hPa 0,0 l/m 0,0 km/h (0 Bft) 0 min 0 min 0,0 km/h (0 Bft)
15.05.2012 02:00 19,1 C 9,5 C 0,0 UV-I 0,0 C 45 % 78 % 0 % 1011,6 hPa 0,0 l/m 0,0 km/h (0 Bft) 0 min 0 min 0,0 km/h (0 Bft)
15.05.2012 02:02 19,1 C 9,5 C 0,0 UV-I 0,0 C 45 % 78 % 0 % 1011,6 hPa 0,0 l/m 0,0 km/h (0 Bft) 0 min 0 min 0,0 km/h (0 Bft)
15.05.2012 02:04 19,1 C 9,4 C 0,0 UV-I 0,0 C 45 % 78 % 0 % 1011,6 hPa 0,0 l/m 0,0 km/h (0 Bft) 0 min 0 min 0,0 km/h (0 Bft)
15.05.2012 02:06 19,1 C 9,5 C 0,0 UV-I 0,0 C 45 % 78 % 0 % 1011,6 hPa 0,0 l/m 0,0 km/h (0 Bft) 0 min 0 min 0,0 km/h (0 Bft)
15.05.2012 02:08 19,1 C 9,3 C 0,0 UV-I 0,0 C 45 % 78 % 0 % 1011,6 hPa 0,0 l/m 0,0 km/h (0 Bft) 0 min 0 min 0,0 km/h (0 Bft)
15.05.2012 02:10 19,1 C 9,3 C 0,0 UV-I 0,0 C 45 % 79 % 0 % 1011,6 hPa 0,0 l/m 0,0 km/h (0 Bft) 0 min 0 min 0,0 km/h (0 Bft)
15.05.2012 02:12 19,1 C 9,3 C 0,0 UV-I 0,0 C 45 % 79 % 0 % 1011,6 hPa 0,0 l/m 0,0 km/h (0 Bft) 0 min 0 min 0,0 km/h (0 Bft)
15.05.2012 02:14 19,1 C 9,3 C 0,0 UV-I 0,0 C 45 % 79 % 0 % 1011,6 hPa 0,0 l/m 0,0 km/h (0 Bft) 0 min 0 min 0,0 km/h (0 Bft)
15.05.2012 02:16 19,0 C 9,2 C 0,0 UV-I 0,0 C 45 % 79 % 0 % 1011,6 hPa 0,0 l/m 0,0 km/h (0 Bft) 0 min 0 min 0,0 km/h (0 Bft)
15.05.2012 02:18 19,0 C 9,2 C 0,0 UV-I 0,0 C 45 % 79 % 0 % 1011,2 hPa 0,0 l/m 0,0 km/h (0 Bft) 0 min 0 min 0,0 km/h (0 Bft)
15.05.2012 02:20 19,0 C 9,3 C 0,0 UV-I 0,0 C 45 % 79 % 0 % 1011,2 hPa 0,0 l/m 0,0 km/h (0 Bft) 0 min 0 min 0,0 km/h (0 Bft)
15.05.2012 02:22 19,0 C 9,2 C 0,0 UV-I 0,0 C 45 % 79 % 0 % 1011,2 hPa 0,0 l/m 0,0 km/h (0 Bft) 0 min 0 min 0,0 km/h (0 Bft)
15.05.2012 02:24 19,0 C 9,2 C 0,0 UV-I 0,0 C 45 % 80 % 0 % 1011,2 hPa 0,0 l/m 0,0 km/h (0 Bft) 0 min 0 min 0,0 km/h (0 Bft)
15.05.2012 02:26 19,0 C 9,1 C 0,0 UV-I 0,0 C 45 % 80 % 0 % 1011,2 hPa 0,0 l/m 0,0 km/h (0 Bft) 0 min 0 min 0,0 km/h (0 Bft)
15.05.2012 02:28 19,0 C 9,1 C 0,0 UV-I 0,0 C 45 % 80 % 0 % 1011,2 hPa 0,0 l/m 0,0 km/h (0 Bft) 0 min 0 min 0,0 km/h (0 Bft)
15.05.2012 02:30 19,0 C 9,1 C 0,0 UV-I 0,0 C 45 % 80 % 0 % 1011,2 hPa 0,0 l/m 0,0 km/h (0 Bft) 0 min 0 min 0,0 km/h (0 Bft)
15.05.2012 02:32 19,0 C 9,0 C 0,0 UV-I 0,0 C 45 % 80 % 0 % 1011,2 hPa 0,0 l/m 0,0 km/h (0 Bft) 0 min 0 min 0,0 km/h (0 Bft)
15.05.2012 02:34 19,0 C 9,0 C 0,0 UV-I 0,0 C 45 % 80 % 0 % 1011,2 hPa 0,0 l/m 0,0 km/h (0 Bft) 0 min 0 min 0,0 km/h (0 Bft)
15.05.2012 02:36 19,0 C 9,1 C 0,0 UV-I 0,0 C 45 % 80 % 0 % 1011,2 hPa 0,0 l/m 0,0 km/h (0 Bft) 0 min 0 min 0,0 km/h (0 Bft)
15.05.2012 02:38 19,0 C 9,1 C 0,0 UV-I 0,0 C 45 % 80 % 0 % 1011,3 hPa 0,0 l/m 0,0 km/h (0 Bft) 0 min 0 min 0,0 km/h (0 Bft)
15.05.2012 02:40 19,0 C 9,1 C 0,0 UV-I 0,0 C 45 % 81 % 0 % 1011,3 hPa 0,0 l/m 0,0 km/h (0 Bft) 0 min 0 min 0,0 km/h (0 Bft)
15.05.2012 02:42 18,9 C 9,1 C 0,0 UV-I 0,0 C 45 % 81 % 0 % 1011,3 hPa 0,0 l/m 0,0 km/h (0 Bft) 0 min 0 min 0,0 km/h (0 Bft)
15.05.2012 02:44 18,9 C 9,1 C 0,0 UV-I 0,0 C 45 % 81 % 0 % 1011,3 hPa 0,0 l/m 0,0 km/h (0 Bft) 0 min 0 min 0,0 km/h (0 Bft)
15.05.2012 02:46 18,9 C 9,1 C 0,0 UV-I 0,0 C 45 % 81 % 0 % 1011,3 hPa 0,0 l/m 0,0 km/h (0 Bft) 0 min 0 min 0,0 km/h (0 Bft)
15.05.2012 02:48 18,9 C 9,1 C 0,0 UV-I 0,0 C 45 % 81 % 0 % 1011,3 hPa 0,0 l/m 0,0 km/h (0 Bft) 0 min 0 min 0,0 km/h (0 Bft)
15.05.2012 02:50 18,9 C 9,1 C 0,0 UV-I 0,0 C 45 % 81 % 0 % 1011,3 hPa 0,0 l/m 0,0 km/h (0 Bft) 0 min 0 min 0,0 km/h (0 Bft)
15.05.2012 02:52 18,9 C 9,1 C 0,0 UV-I 0,0 C 45 % 81 % 0 % 1011,3 hPa 0,0 l/m 0,0 km/h (0 Bft) 0 min 0 min 0,0 km/h (0 Bft)
15.05.2012 02:54 18,9 C 9,1 C 0,0 UV-I 0,0 C 45 % 81 % 0 % 1011,3 hPa 0,0 l/m 0,0 km/h (0 Bft) 0 min 0 min 0,0 km/h (0 Bft)
15.05.2012 02:56 18,8 C 9,1 C 0,0 UV-I 0,0 C 46 % 81 % 0 % 1011,3 hPa 0,0 l/m 0,0 km/h (0 Bft) 0 min 0 min 0,0 km/h (0 Bft)
15.05.2012 02:58 18,8 C 9,0 C 0,0 UV-I 0,0 C 46 % 81 % 0 % 1010,9 hPa 0,0 l/m 0,0 km/h (0 Bft) 0 min 0 min 0,0 km/h (0 Bft)
15.05.2012 03:00 18,8 C 9,1 C 0,0 UV-I 0,0 C 46 % 81 % 0 % 1010,9 hPa 0,0 l/m 0,0 km/h (0 Bft) 0 min 0 min 0,0 km/h (0 Bft)
15.05.2012 03:02 18,8 C 9,1 C 0,0 UV-I 0,0 C 46 % 81 % 0 % 1010,9 hPa 0,0 l/m 0,0 km/h (0 Bft) 0 min 0 min 0,0 km/h (0 Bft)
15.05.2012 03:04 18,8 C 9,1 C 0,0 UV-I 0,0 C 46 % 81 % 0 % 1010,9 hPa 0,0 l/m 0,0 km/h (0 Bft) 0 min 0 min 0,0 km/h (0 Bft)
15.05.2012 03:06 18,8 C 9,1 C 0,0 UV-I 0,0 C 46 % 82 % 0 % 1010,9 hPa 0,0 l/m 0,0 km/h (0 Bft) 0 min 0 min 0,0 km/h (0 Bft)
15.05.2012 03:08 18,8 C 9,1 C 0,0 UV-I 0,0 C 46 % 82 % 0 % 1010,9 hPa 0,0 l/m 0,0 km/h (0 Bft) 0 min 0 min 0,0 km/h (0 Bft)
15.05.2012 03:10 18,8 C 9,1 C 0,0 UV-I 0,0 C 46 % 82 % 0 % 1010,9 hPa 0,0 l/m 0,0 km/h (0 Bft) 0 min 0 min 0,0 km/h (0 Bft)
15.05.2012 03:12 18,8 C 9,0 C 0,0 UV-I 0,0 C 46 % 82 % 0 % 1010,9 hPa 0,0 l/m 0,0 km/h (0 Bft) 0 min 0 min 0,0 km/h (0 Bft)
15.05.2012 03:14 18,8 C 9,1 C 0,0 UV-I 0,0 C 46 % 82 % 0 % 1010,9 hPa 0,0 l/m 0,0 km/h (0 Bft) 0 min 0 min 0,0 km/h (0 Bft)
15.05.2012 03:16 18,8 C 9,0 C 0,0 UV-I 0,0 C 46 % 82 % 0 % 1010,9 hPa 0,0 l/m 0,0 km/h (0 Bft) 0 min 0 min 0,0 km/h (0 Bft)
15.05.2012 03:18 18,8 C 9,1 C 0,0 UV-I 0,0 C 46 % 82 % 0 % 1010,9 hPa 0,0 l/m 0,0 km/h (0 Bft) 0 min 0 min 0,0 km/h (0 Bft)
15.05.2012 03:20 18,8 C 9,1 C 0,0 UV-I 0,0 C 46 % 82 % 0 % 1010,9 hPa 0,0 l/m 0,0 km/h (0 Bft) 0 min 0 min 0,0 km/h (0 Bft)
15.05.2012 03:22 18,8 C 9,1 C 0,0 UV-I 0,0 C 46 % 82 % 0 % 1010,9 hPa 0,0 l/m 0,0 km/h (0 Bft) 0 min 0 min 0,0 km/h (0 Bft)
15.05.2012 03:24 18,8 C 9,1 C 0,0 UV-I 0,0 C 46 % 82 % 0 % 1010,9 hPa 0,0 l/m 0,0 km/h (0 Bft) 0 min 0 min 0,0 km/h (0 Bft)
15.05.2012 03:26 18,8 C 9,1 C 0,0 UV-I 0,0 C 46 % 82 % 0 % 1010,9 hPa 0,0 l/m 0,0 km/h (0 Bft) 0 min 0 min 0,0 km/h (0 Bft)
15.05.2012 03:28 18,7 C 9,0 C 0,0 UV-I 0,0 C 46 % 82 % 0 % 1010,9 hPa 0,0 l/m 0,0 km/h (0 Bft) 0 min 0 min 0,0 km/h (0 Bft)
15.05.2012 03:30 18,8 C 9,0 C 0,0 UV-I 0,0 C 46 % 82 % 0 % 1010,9 hPa 0,0 l/m 0,0 km/h (0 Bft) 0 min 0 min 0,0 km/h (0 Bft)
15.05.2012 03:32 18,7 C 9,0 C 0,0 UV-I 0,0 C 46 % 82 % 0 % 1010,9 hPa 0,0 l/m 0,0 km/h (0 Bft) 0 min 0 min 0,0 km/h (0 Bft)
15.05.2012 03:34 18,7 C 9,0 C 0,0 UV-I 0,0 C 46 % 82 % 0 % 1010,9 hPa 0,0 l/m 0,0 km/h (0 Bft) 0 min 0 min 0,0 km/h (0 Bft)
15.05.2012 03:36 18,7 C 8,9 C 0,0 UV-I 0,0 C 46 % 82 % 0 % 1010,9 hPa 0,0 l/m 0,0 km/h (0 Bft) 0 min 0 min 0,0 km/h (0 Bft)
15.05.2012 03:38 18,7 C 8,9 C 0,0 UV-I 0,0 C 46 % 82 % 0 % 1010,5 hPa 0,0 l/m 0,0 km/h (0 Bft) 0 min 0 min 0,0 km/h (0 Bft)
15.05.2012 03:40 18,7 C 8,9 C 0,0 UV-I 0,0 C 46 % 82 % 0 % 1010,5 hPa 0,0 l/m 0,0 km/h (0 Bft) 0 min 0 min 0,0 km/h (0 Bft)
15.05.2012 03:42 18,7 C 8,9 C 0,0 UV-I 0,0 C 46 % 82 % 0 % 1010,5 hPa 0,0 l/m 0,0 km/h (0 Bft) 0 min 0 min 0,0 km/h (0 Bft)
15.05.2012 03:44 18,7 C 8,9 C 0,0 UV-I 0,0 C 46 % 82 % 0 % 1010,5 hPa 0,0 l/m 0,0 km/h (0 Bft) 0 min 0 min 0,0 km/h (0 Bft)
15.05.2012 03:46 18,6 C 8,9 C 0,0 UV-I 0,0 C 46 % 82 % 0 % 1010,5 hPa 0,0 l/m 0,0 km/h (0 Bft) 0 min 0 min 0,0 km/h (0 Bft)
15.05.2012 03:48 18,6 C 8,9 C 0,0 UV-I 0,0 C 46 % 83 % 0 % 1010,5 hPa 0,0 l/m 0,0 km/h (0 Bft) 0 min 0 min 0,0 km/h (0 Bft)
15.05.2012 03:50 18,6 C 8,9 C 0,0 UV-I 0,0 C 46 % 83 % 0 % 1010,5 hPa 0,0 l/m 0,0 km/h (0 Bft) 0 min 0 min 0,0 km/h (0 Bft)
15.05.2012 03:52 18,6 C 8,9 C 0,0 UV-I 0,0 C 46 % 83 % 0 % 1010,5 hPa 0,0 l/m 0,0 km/h (0 Bft) 0 min 0 min 0,0 km/h (0 Bft)
15.05.2012 03:54 18,6 C 8,9 C 0,0 UV-I 0,0 C 46 % 83 % 0 % 1010,5 hPa 0,0 l/m 0,0 km/h (0 Bft) 0 min 0 min 0,0 km/h (0 Bft)
15.05.2012 03:56 18,6 C 8,9 C 0,0 UV-I 0,0 C 46 % 83 % 0 % 1010,5 hPa 0,0 l/m 0,0 km/h (0 Bft) 0 min 0 min 0,0 km/h (0 Bft)
15.05.2012 03:58 18,6 C 8,9 C 0,0 UV-I 0,0 C 46 % 83 % 0 % 1010,5 hPa 0,0 l/m 0,0 km/h (0 Bft) 0 min 0 min 0,0 km/h (0 Bft)
15.05.2012 04:00 18,6 C 9,0 C 0,0 UV-I 0,0 C 46 % 83 % 0 % 1010,5 hPa 0,0 l/m 0,0 km/h (0 Bft) 0 min 0 min 0,0 km/h (0 Bft)
15.05.2012 04:02 18,6 C 9,0 C 0,0 UV-I 0,0 C 46 % 83 % 0 % 1010,5 hPa 0,0 l/m 0,0 km/h (0 Bft) 0 min 0 min 0,0 km/h (0 Bft)
15.05.2012 04:04 18,6 C 9,0 C 0,0 UV-I 0,0 C 46 % 83 % 0 % 1010,5 hPa 0,0 l/m 0,0 km/h (0 Bft) 0 min 0 min 0,0 km/h (0 Bft)
15.05.2012 04:06 18,6 C 9,1 C 0,0 UV-I 0,0 C 46 % 83 % 0 % 1010,5 hPa 0,0 l/m 0,0 km/h (0 Bft) 0 min 0 min 0,0 km/h (0 Bft)
15.05.2012 04:08 18,6 C 9,1 C 0,0 UV-I 0,0 C 46 % 84 % 0 % 1010,5 hPa 0,0 l/m 0,0 km/h (0 Bft) 0 min 0 min 0,0 km/h (0 Bft)
15.05.2012 04:10 18,6 C 9,1 C 0,0 UV-I 0,0 C 46 % 84 % 0 % 1010,5 hPa 0,0 l/m 0,0 km/h (0 Bft) 0 min 0 min 0,0 km/h (0 Bft)
15.05.2012 04:12 18,6 C 9,1 C 0,0 UV-I 0,0 C 46 % 84 % 0 % 1010,5 hPa 0,0 l/m 0,0 km/h (0 Bft) 0 min 0 min 0,0 km/h (0 Bft)
15.05.2012 04:14 18,6 C 9,1 C 0,0 UV-I 0,0 C 47 % 84 % 0 % 1010,5 hPa 0,0 l/m 0,0 km/h (0 Bft) 0 min 0 min 0,0 km/h (0 Bft)
15.05.2012 04:16 18,6 C 9,0 C 0,0 UV-I 0,0 C 47 % 84 % 0 % 1010,5 hPa 0,0 l/m 0,0 km/h (0 Bft) 0 min 2 min 0,0 km/h (0 Bft)
15.05.2012 04:18 18,6 C 9,0 C 0,0 UV-I 0,0 C 47 % 84 % 0 % 1010,4 hPa 0,0 l/m 0,0 km/h (0 Bft) 0 min 2 min 0,0 km/h (0 Bft)
15.05.2012 04:20 18,6 C 9,1 C 0,0 UV-I 0,0 C 47 % 84 % 0 % 1010,4 hPa 0,0 l/m 0,0 km/h (0 Bft) 0 min 2 min 0,0 km/h (0 Bft)
15.05.2012 04:22 18,6 C 9,1 C 0,0 UV-I 0,0 C 47 % 84 % 0 % 1010,4 hPa 0,0 l/m 0,0 km/h (0 Bft) 0 min 2 min 0,0 km/h (0 Bft)
15.05.2012 04:24 18,6 C 9,1 C 0,0 UV-I 0,0 C 47 % 84 % 0 % 1010,4 hPa 0,0 l/m 0,0 km/h (0 Bft) 0 min 2 min 0,0 km/h (0 Bft)
15.05.2012 04:26 18,6 C 9,1 C 0,0 UV-I 0,0 C 47 % 84 % 0 % 1010,4 hPa 0,0 l/m 0,0 km/h (0 Bft) 0 min 2 min 0,0 km/h (0 Bft)
15.05.2012 04:28 18,6 C 9,1 C 0,0 UV-I 0,0 C 47 % 84 % 0 % 1010,4 hPa 0,0 l/m 0,0 km/h (0 Bft) 0 min 2 min 0,0 km/h (0 Bft)
15.05.2012 04:30 18,6 C 9,1 C 0,0 UV-I 0,0 C 47 % 85 % 0 % 1010,4 hPa 0,0 l/m 0,0 km/h (0 Bft) 0 min 0 min 0,0 km/h (0 Bft)
15.05.2012 04:32 18,6 C 9,1 C 0,0 UV-I 0,0 C 47 % 85 % 0 % 1010,4 hPa 0,0 l/m 0,0 km/h (0 Bft) 0 min 0 min 0,0 km/h (0 Bft)
15.05.2012 04:34 18,6 C 9,1 C 0,0 UV-I 0,0 C 47 % 85 % 0 % 1010,4 hPa 0,0 l/m 0,0 km/h (0 Bft) 0 min 0 min 0,0 km/h (0 Bft)
15.05.2012 04:36 18,6 C 9,1 C 0,0 UV-I 0,0 C 47 % 85 % 0 % 1010,4 hPa 0,0 l/m 0,0 km/h (0 Bft) 0 min 0 min 0,0 km/h (0 Bft)
15.05.2012 04:38 18,6 C 9,1 C 0,0 UV-I 0,0 C 48 % 85 % 0 % 1010,1 hPa 0,0 l/m 0,0 km/h (0 Bft) 0 min 0 min 0,0 km/h (0 Bft)
15.05.2012 04:40 18,6 C 9,1 C 0,0 UV-I 0,0 C 48 % 85 % 0 % 1010,1 hPa 0,0 l/m 0,0 km/h (0 Bft) 0 min 2 min 0,0 km/h (0 Bft)
15.05.2012 04:42 18,6 C 9,1 C 0,0 UV-I 0,0 C 48 % 85 % 0 % 1010,1 hPa 0,0 l/m 0,0 km/h (0 Bft) 0 min 0 min 0,0 km/h (0 Bft)
15.05.2012 04:44 18,6 C 9,1 C 0,0 UV-I 0,0 C 48 % 85 % 0 % 1010,1 hPa 0,0 l/m 0,0 km/h (0 Bft) 0 min 0 min 0,0 km/h (0 Bft)
15.05.2012 04:46 18,6 C 9,1 C 0,0 UV-I 0,0 C 48 % 85 % 0 % 1010,1 hPa 0,0 l/m 0,0 km/h (0 Bft) 0 min 2 min 0,0 km/h (0 Bft)
15.05.2012 04:48 18,6 C 9,1 C 0,0 UV-I 0,0 C 48 % 85 % 0 % 1010,1 hPa 0,0 l/m 0,0 km/h (0 Bft) 0 min 0 min 0,0 km/h (0 Bft)
15.05.2012 04:50 18,5 C 9,1 C 0,0 UV-I 0,0 C 48 % 85 % 0 % 1010,1 hPa 0,0 l/m 0,0 km/h (0 Bft) 0 min 0 min 0,0 km/h (0 Bft)
15.05.2012 04:52 18,5 C 9,1 C 0,0 UV-I 0,0 C 48 % 85 % 0 % 1010,1 hPa 0,0 l/m 0,0 km/h (0 Bft) 0 min 0 min 0,0 km/h (0 Bft)
15.05.2012 04:54 18,6 C 9,1 C 0,0 UV-I 0,0 C 48 % 85 % 0 % 1010,1 hPa 0,0 l/m 0,0 km/h (0 Bft) 0 min 0 min 0,0 km/h (0 Bft)
15.05.2012 04:56 18,5 C 9,1 C 0,0 UV-I 0,0 C 48 % 85 % 0 % 1010,1 hPa 0,0 l/m 0,0 km/h (0 Bft) 0 min 0 min 0,0 km/h (0 Bft)
15.05.2012 04:58 18,5 C 9,1 C 0,0 UV-I 0,0 C 48 % 85 % 0 % 1010,1 hPa 0,0 l/m 0,0 km/h (0 Bft) 0 min 0 min 0,0 km/h (0 Bft)
15.05.2012 05:00 18,5 C 9,1 C 0,0 UV-I 0,0 C 48 % 85 % 0 % 1010,1 hPa 0,0 l/m 0,0 km/h (0 Bft) 0 min 0 min 0,0 km/h (0 Bft)
15.05.2012 05:02 18,5 C 9,0 C 0,0 UV-I 0,0 C 48 % 85 % 0 % 1010,1 hPa 0,0 l/m 0,0 km/h (0 Bft) 0 min 0 min 0,0 km/h (0 Bft)
15.05.2012 05:04 18,5 C 9,0 C 0,0 UV-I 0,0 C 49 % 85 % 0 % 1010,1 hPa 0,0 l/m 0,0 km/h (0 Bft) 0 min 0 min 0,0 km/h (0 Bft)
15.05.2012 05:06 18,5 C 9,0 C 0,0 UV-I 0,0 C 49 % 85 % 0 % 1010,1 hPa 0,0 l/m 0,0 km/h (0 Bft) 0 min 0 min 0,0 km/h (0 Bft)
15.05.2012 05:08 18,5 C 9,0 C 0,0 UV-I 0,0 C 49 % 86 % 0 % 1010,1 hPa 0,0 l/m 0,0 km/h (0 Bft) 0 min 0 min 0,0 km/h (0 Bft)
15.05.2012 05:10 18,5 C 9,1 C 0,0 UV-I 0,0 C 49 % 86 % 0 % 1010,1 hPa 0,0 l/m 0,0 km/h (0 Bft) 0 min 0 min 0,0 km/h (0 Bft)
15.05.2012 05:12 18,5 C 9,1 C 0,0 UV-I 0,0 C 49 % 86 % 0 % 1010,1 hPa 0,0 l/m 0,0 km/h (0 Bft) 0 min 0 min 0,0 km/h (0 Bft)
15.05.2012 05:14 18,5 C 9,1 C 0,0 UV-I 0,0 C 49 % 86 % 0 % 1010,1 hPa 0,0 l/m 0,0 km/h (0 Bft) 0 min 0 min 0,0 km/h (0 Bft)
15.05.2012 05:16 18,5 C 9,0 C 0,0 UV-I 0,0 C 49 % 86 % 0 % 1010,1 hPa 0,0 l/m 0,0 km/h (0 Bft) 0 min 0 min 0,0 km/h (0 Bft)
15.05.2012 05:18 18,4 C 9,1 C 0,0 UV-I 0,0 C 49 % 86 % 0 % 1009,8 hPa 0,0 l/m 0,0 km/h (0 Bft) 0 min 0 min 0,0 km/h (0 Bft)
15.05.2012 05:20 18,4 C 9,0 C 0,0 UV-I 0,0 C 49 % 86 % 0 % 1009,8 hPa 0,0 l/m 0,0 km/h (0 Bft) 0 min 0 min 0,0 km/h (0 Bft)
15.05.2012 05:22 18,4 C 8,9 C 0,0 UV-I 0,0 C 49 % 86 % 0 % 1009,8 hPa 0,0 l/m 0,0 km/h (0 Bft) 0 min 0 min 0,0 km/h (0 Bft)
15.05.2012 05:24 18,4 C 8,9 C 0,0 UV-I 0,0 C 49 % 86 % 0 % 1009,8 hPa 0,0 l/m 0,0 km/h (0 Bft) 0 min 0 min 0,0 km/h (0 Bft)
15.05.2012 05:26 18,4 C 8,9 C 0,0 UV-I 0,0 C 49 % 86 % 0 % 1009,8 hPa 0,0 l/m 0,0 km/h (0 Bft) 0 min 0 min 0,0 km/h (0 Bft)
15.05.2012 05:28 18,4 C 8,9 C 0,0 UV-I 0,0 C 49 % 86 % 0 % 1009,8 hPa 0,0 l/m 0,0 km/h (0 Bft) 0 min 0 min 0,0 km/h (0 Bft)
15.05.2012 05:30 18,4 C 8,9 C 0,0 UV-I 0,0 C 49 % 86 % 0 % 1009,8 hPa 0,0 l/m 0,0 km/h (0 Bft) 0 min 0 min 0,0 km/h (0 Bft)
15.05.2012 05:32 18,4 C 8,9 C 0,0 UV-I 0,0 C 49 % 86 % 0 % 1009,8 hPa 0,0 l/m 0,4 km/h (0 Bft) 0 min 0 min 0,0 km/h (0 Bft)
15.05.2012 05:34 18,4 C 8,9 C 0,0 UV-I 0,0 C 49 % 86 % 0 % 1009,8 hPa 0,0 l/m 0,4 km/h (0 Bft) 0 min 0 min 0,0 km/h (0 Bft)
15.05.2012 05:36 18,4 C 8,9 C 0,0 UV-I 0,0 C 49 % 87 % 0 % 1009,8 hPa 0,0 l/m 0,4 km/h (0 Bft) 0 min 0 min 0,0 km/h (0 Bft)
15.05.2012 05:38 18,4 C 8,9 C 0,0 UV-I 0,0 C 49 % 87 % 0 % 1010,0 hPa 0,0 l/m 0,4 km/h (0 Bft) 0 min 0 min 0,0 km/h (0 Bft)
15.05.2012 05:40 18,4 C 8,9 C 0,0 UV-I 0,0 C 49 % 87 % 0 % 1010,0 hPa 0,0 l/m 0,4 km/h (0 Bft) 0 min 0 min 10,0 km/h (2 Bft)
15.05.2012 05:42 18,4 C 8,9 C 0,0 UV-I 0,0 C 49 % 87 % 0 % 1010,0 hPa 0,0 l/m 0,0 km/h (0 Bft) 0 min 0 min 0,0 km/h (0 Bft)
15.05.2012 05:44 18,4 C 8,8 C 0,0 UV-I 0,0 C 49 % 87 % 0 % 1010,0 hPa 0,0 l/m 0,0 km/h (0 Bft) 0 min 0 min 0,0 km/h (0 Bft)
15.05.2012 05:46 18,4 C 8,8 C 0,0 UV-I 0,0 C 49 % 87 % 0 % 1010,0 hPa 0,0 l/m 0,0 km/h (0 Bft) 0 min 0 min 0,0 km/h (0 Bft)
15.05.2012 05:48 18,4 C 8,8 C 0,0 UV-I 0,0 C 49 % 87 % 0 % 1010,0 hPa 0,0 l/m 0,0 km/h (0 Bft) 0 min 0 min 0,0 km/h (0 Bft)
15.05.2012 05:50 18,4 C 8,8 C 0,0 UV-I 0,0 C 49 % 87 % 0 % 1010,0 hPa 0,0 l/m 0,0 km/h (0 Bft) 0 min 0 min 0,0 km/h (0 Bft)
15.05.2012 05:52 18,4 C 8,8 C 0,0 UV-I 0,0 C 49 % 87 % 0 % 1010,0 hPa 0,0 l/m 0,0 km/h (0 Bft) 0 min 0 min 0,0 km/h (0 Bft)
15.05.2012 05:54 18,4 C 8,8 C 0,0 UV-I 0,0 C 49 % 87 % 0 % 1010,0 hPa 0,0 l/m 0,0 km/h (0 Bft) 0 min 0 min 0,0 km/h (0 Bft)
15.05.2012 05:56 18,4 C 8,8 C 0,0 UV-I 0,0 C 49 % 87 % 0 % 1010,0 hPa 0,0 l/m 0,0 km/h (0 Bft) 0 min 0 min 0,0 km/h (0 Bft)
15.05.2012 05:58 18,4 C 8,8 C 0,0 UV-I 0,0 C 49 % 87 % 0 % 1009,9 hPa 0,0 l/m 0,0 km/h (0 Bft) 0 min 0 min 0,0 km/h (0 Bft)
15.05.2012 06:00 18,4 C 8,8 C 0,0 UV-I 0,0 C 49 % 87 % 0 % 1009,9 hPa 0,0 l/m 0,0 km/h (0 Bft) 0 min 0 min 0,0 km/h (0 Bft)
15.05.2012 06:02 18,4 C 8,8 C 0,0 UV-I 0,0 C 49 % 87 % 0 % 1009,9 hPa 0,0 l/m 0,0 km/h (0 Bft) 0 min 0 min 0,0 km/h (0 Bft)
15.05.2012 06:04 18,2 C 8,8 C 0,0 UV-I 0,0 C 49 % 87 % 0 % 1009,9 hPa 0,0 l/m 0,0 km/h (0 Bft) 0 min 0 min 0,0 km/h (0 Bft)
15.05.2012 06:06 18,2 C 8,8 C 0,0 UV-I 0,0 C 49 % 87 % 0 % 1009,9 hPa 0,0 l/m 0,0 km/h (0 Bft) 0 min 0 min 0,0 km/h (0 Bft)
15.05.2012 06:08 18,2 C 8,9 C 0,0 UV-I 0,0 C 49 % 87 % 0 % 1009,9 hPa 0,0 l/m 0,0 km/h (0 Bft) 0 min 0 min 0,0 km/h (0 Bft)
15.05.2012 06:10 18,2 C 8,9 C 0,0 UV-I 0,0 C 49 % 87 % 0 % 1009,9 hPa 0,0 l/m 0,0 km/h (0 Bft) 0 min 0 min 0,0 km/h (0 Bft)
15.05.2012 06:12 18,3 C 9,0 C 0,0 UV-I 0,0 C 49 % 87 % 0 % 1009,9 hPa 0,0 l/m 0,0 km/h (0 Bft) 0 min 2 min 4,0 km/h (1 Bft)
15.05.2012 06:14 18,3 C 8,9 C 0,0 UV-I 0,0 C 49 % 87 % 0 % 1009,9 hPa 0,0 l/m 0,0 km/h (0 Bft) 0 min 2 min 4,0 km/h (1 Bft)
15.05.2012 06:16 18,2 C 8,9 C 0,0 UV-I 0,0 C 49 % 87 % 0 % 1009,9 hPa 0,0 l/m 0,0 km/h (0 Bft) 0 min 0 min 0,0 km/h (0 Bft)
15.05.2012 06:18 18,2 C 9,1 C 0,0 UV-I 0,0 C 49 % 87 % 0 % 1010,1 hPa 0,0 l/m 0,0 km/h (0 Bft) 0 min 0 min 0,0 km/h (0 Bft)
15.05.2012 06:20 18,2 C 9,1 C 0,0 UV-I 0,0 C 49 % 88 % 0 % 1010,1 hPa 0,0 l/m 0,4 km/h (0 Bft) 0 min 0 min 9,6 km/h (2 Bft)
15.05.2012 06:22 18,2 C 9,0 C 0,0 UV-I 0,0 C 49 % 88 % 0 % 1010,1 hPa 0,0 l/m 0,4 km/h (0 Bft) 0 min 0 min 9,6 km/h (2 Bft)
15.05.2012 06:24 18,2 C 9,0 C 0,0 UV-I 0,0 C 49 % 88 % 0 % 1010,1 hPa 0,0 l/m 0,8 km/h (0 Bft) 0 min 0 min 0,0 km/h (0 Bft)
15.05.2012 06:26 18,3 C 9,1 C 0,0 UV-I 0,0 C 49 % 88 % 0 % 1010,1 hPa 0,0 l/m 0,8 km/h (0 Bft) 0 min 0 min 5,6 km/h (1 Bft)
15.05.2012 06:28 18,3 C 9,0 C 0,0 UV-I 0,0 C 49 % 87 % 0 % 1010,1 hPa 0,0 l/m 0,8 km/h (0 Bft) 0 min 0 min 5,6 km/h (1 Bft)
15.05.2012 06:30 18,2 C 9,1 C 0,0 UV-I 0,0 C 49 % 87 % 0 % 1010,1 hPa 0,0 l/m 0,8 km/h (0 Bft) 0 min 0 min 12,8 km/h (3 Bft)
15.05.2012 06:32 18,2 C 9,1 C 0,0 UV-I 0,0 C 49 % 87 % 0 % 1010,1 hPa 0,0 l/m 0,8 km/h (0 Bft) 0 min 0 min 4,4 km/h (1 Bft)
15.05.2012 06:34 18,2 C 9,1 C 0,0 UV-I 0,0 C 49 % 88 % 0 % 1010,1 hPa 0,0 l/m 0,4 km/h (0 Bft) 0 min 0 min 4,4 km/h (1 Bft)
15.05.2012 06:36 18,3 C 9,1 C 0,0 UV-I 0,0 C 49 % 87 % 0 % 1010,1 hPa 0,0 l/m 0,4 km/h (0 Bft) 0 min 0 min 0,0 km/h (0 Bft)
15.05.2012 06:38 18,2 C 9,1 C 0,0 UV-I 0,0 C 49 % 87 % 0 % 1009,8 hPa 0,0 l/m 0,4 km/h (0 Bft) 0 min 0 min 0,0 km/h (0 Bft)
15.05.2012 06:40 18,3 C 9,1 C 0,0 UV-I 0,0 C 49 % 87 % 0 % 1009,8 hPa 0,0 l/m 0,4 km/h (0 Bft) 0 min 0 min 0,0 km/h (0 Bft)
15.05.2012 06:42 18,3 C 9,1 C 0,0 UV-I 0,0 C 49 % 87 % 0 % 1009,8 hPa 0,0 l/m 0,8 km/h (0 Bft) 0 min 0 min 8,4 km/h (2 Bft)
15.05.2012 06:44 18,3 C 9,1 C 0,0 UV-I 0,0 C 49 % 88 % 0 % 1009,8 hPa 0,0 l/m 0,8 km/h (0 Bft) 0 min 0 min 8,4 km/h (2 Bft)
15.05.2012 06:46 18,3 C 9,1 C 0,0 UV-I 0,0 C 49 % 88 % 0 % 1009,8 hPa 0,0 l/m 0,8 km/h (0 Bft) 0 min 0 min 0,0 km/h (0 Bft)
15.05.2012 06:48 18,3 C 9,1 C 0,0 UV-I 0,0 C 49 % 88 % 0 % 1009,8 hPa 0,0 l/m 1,2 km/h (1 Bft) 0 min 0 min 4,8 km/h (1 Bft)
15.05.2012 06:50 18,3 C 9,1 C 0,0 UV-I 0,0 C 49 % 88 % 0 % 1009,8 hPa 0,0 l/m 1,2 km/h (1 Bft) 0 min 0 min 4,8 km/h (1 Bft)
15.05.2012 06:52 18,3 C 9,1 C 0,0 UV-I 0,0 C 49 % 87 % 0 % 1009,8 hPa 0,0 l/m 0,8 km/h (0 Bft) 0 min 0 min 0,0 km/h (0 Bft)
15.05.2012 06:54 18,3 C 9,1 C 0,0 UV-I 0,0 C 49 % 87 % 0 % 1009,8 hPa 0,0 l/m 0,8 km/h (0 Bft) 0 min 0 min 0,0 km/h (0 Bft)
15.05.2012 06:56 18,2 C 9,1 C 0,0 UV-I 0,0 C 49 % 87 % 0 % 1009,8 hPa 0,0 l/m 0,8 km/h (0 Bft) 0 min 0 min 4,8 km/h (1 Bft)
15.05.2012 06:58 18,3 C 9,1 C 0,0 UV-I 0,0 C 49 % 87 % 0 % 1009,7 hPa 0,0 l/m 0,8 km/h (0 Bft) 0 min 0 min 4,8 km/h (1 Bft)
15.05.2012 07:00 18,3 C 9,1 C 0,0 UV-I 0,0 C 49 % 87 % 0 % 1009,7 hPa 0,0 l/m 0,8 km/h (0 Bft) 0 min 0 min 0,0 km/h (0 Bft)
15.05.2012 07:02 18,2 C 9,1 C 0,0 UV-I 0,0 C 49 % 87 % 0 % 1009,7 hPa 0,0 l/m 0,8 km/h (0 Bft) 0 min 0 min 0,0 km/h (0 Bft)
15.05.2012 07:04 18,2 C 9,1 C 0,0 UV-I 0,0 C 49 % 87 % 0 % 1009,7 hPa 0,0 l/m 0,8 km/h (0 Bft) 0 min 0 min 0,0 km/h (0 Bft)
15.05.2012 07:06 18,2 C 9,2 C 0,0 UV-I 0,0 C 49 % 87 % 0 % 1009,7 hPa 0,0 l/m 0,8 km/h (0 Bft) 0 min 0 min 4,0 km/h (1 Bft)
15.05.2012 07:08 18,2 C 9,2 C 0,0 UV-I 0,0 C 49 % 87 % 0 % 1009,7 hPa 0,0 l/m 0,8 km/h (0 Bft) 0 min 0 min 4,0 km/h (1 Bft)
15.05.2012 07:10 18,2 C 9,2 C 0,0 UV-I 0,0 C 49 % 87 % 0 % 1009,7 hPa 0,0 l/m 0,4 km/h (0 Bft) 0 min 0 min 0,0 km/h (0 Bft)
15.05.2012 07:12 18,2 C 9,2 C 0,0 UV-I 0,0 C 49 % 87 % 0 % 1009,7 hPa 0,0 l/m 0,4 km/h (0 Bft) 0 min 0 min 0,0 km/h (0 Bft)
15.05.2012 07:14 18,2 C 9,3 C 0,0 UV-I 0,0 C 49 % 87 % 0 % 1009,7 hPa 0,0 l/m 0,4 km/h (0 Bft) 0 min 0 min 0,0 km/h (0 Bft)
15.05.2012 07:16 18,2 C 9,3 C 0,0 UV-I 0,0 C 49 % 87 % 0 % 1009,7 hPa 0,0 l/m 0,4 km/h (0 Bft) 0 min 0 min 12,0 km/h (2 Bft)
15.05.2012 07:18 18,2 C 9,3 C 0,0 UV-I 0,0 C 49 % 87 % 0 % 1009,7 hPa 0,0 l/m 0,8 km/h (0 Bft) 0 min 0 min 12,0 km/h (2 Bft)
15.05.2012 07:20 18,2 C 9,3 C 0,0 UV-I 0,0 C 49 % 87 % 0 % 1009,7 hPa 0,0 l/m 1,2 km/h (1 Bft) 0 min 0 min 0,0 km/h (0 Bft)
15.05.2012 07:22 18,2 C 9,3 C 0,0 UV-I 0,0 C 49 % 87 % 0 % 1009,7 hPa 0,0 l/m 1,6 km/h (1 Bft) 0 min 0 min 5,6 km/h (1 Bft)
15.05.2012 07:24 18,2 C 9,3 C 0,0 UV-I 0,0 C 49 % 87 % 0 % 1009,7 hPa 0,0 l/m 1,6 km/h (1 Bft) 0 min 0 min 5,6 km/h (1 Bft)
15.05.2012 07:26 18,2 C 9,2 C 0,0 UV-I 0,1 C 49 % 87 % 3 % 1009,7 hPa 0,0 l/m 1,6 km/h (1 Bft) 0 min 0 min 4,8 km/h (1 Bft)
15.05.2012 07:28 18,2 C 9,2 C 0,0 UV-I 0,1 C 49 % 87 % 3 % 1009,7 hPa 0,0 l/m 1,6 km/h (1 Bft) 0 min 0 min 5,6 km/h (1 Bft)
15.05.2012 07:30 18,2 C 9,3 C 0,0 UV-I 0,0 C 49 % 87 % 0 % 1009,7 hPa 0,0 l/m 1,2 km/h (1 Bft) 0 min 0 min 5,6 km/h (1 Bft)
15.05.2012 07:32 18,2 C 9,2 C 0,0 UV-I 0,2 C 49 % 87 % 6 % 1009,7 hPa 0,0 l/m 1,2 km/h (1 Bft) 0 min 0 min 4,0 km/h (1 Bft)
15.05.2012 07:34 18,2 C 9,3 C 0,0 UV-I 0,2 C 49 % 87 % 6 % 1009,7 hPa 0,0 l/m 0,8 km/h (0 Bft) 0 min 0 min 4,0 km/h (1 Bft)
15.05.2012 07:36 18,2 C 9,3 C 0,0 UV-I 0,3 C 49 % 87 % 9 % 1009,7 hPa 0,0 l/m 0,8 km/h (0 Bft) 0 min 0 min 0,0 km/h (0 Bft)
15.05.2012 07:38 18,2 C 9,3 C 0,0 UV-I 0,3 C 49 % 87 % 9 % 1009,6 hPa 0,0 l/m 1,2 km/h (1 Bft) 0 min 0 min 0,0 km/h (0 Bft)
15.05.2012 07:40 18,2 C 9,3 C 0,0 UV-I 0,3 C 49 % 87 % 9 % 1009,6 hPa 0,0 l/m 1,2 km/h (1 Bft) 0 min 0 min 6,0 km/h (2 Bft)
15.05.2012 07:42 18,2 C 9,3 C 0,0 UV-I 0,4 C 49 % 87 % 11 % 1009,6 hPa 0,0 l/m 1,6 km/h (1 Bft) 0 min 0 min 6,0 km/h (2 Bft)
15.05.2012 07:44 18,2 C 9,3 C 0,0 UV-I 0,4 C 49 % 87 % 11 % 1009,6 hPa 0,0 l/m 2,0 km/h (1 Bft) 0 min 0 min 4,8 km/h (1 Bft)
15.05.2012 07:46 18,2 C 9,4 C 0,0 UV-I 0,4 C 49 % 87 % 11 % 1009,6 hPa 0,0 l/m 2,4 km/h (1 Bft) 0 min 0 min 6,4 km/h (2 Bft)
15.05.2012 07:48 18,2 C 9,5 C 0,1 UV-I 0,3 C 49 % 87 % 9 % 1009,6 hPa 0,0 l/m 2,8 km/h (1 Bft) 0 min 0 min 6,4 km/h (2 Bft)
15.05.2012 07:50 18,2 C 9,3 C 0,1 UV-I 0,6 C 48 % 87 % 17 % 1009,6 hPa 0,0 l/m 2,4 km/h (1 Bft) 0 min 0 min 6,0 km/h (2 Bft)
15.05.2012 07:52 18,2 C 9,4 C 0,1 UV-I 0,6 C 49 % 87 % 17 % 1009,6 hPa 0,0 l/m 2,0 km/h (1 Bft) 0 min 0 min 0,0 km/h (0 Bft)
15.05.2012 07:54 18,2 C 9,5 C 0,1 UV-I 0,7 C 48 % 87 % 20 % 1009,6 hPa 0,0 l/m 1,6 km/h (1 Bft) 0 min 0 min 0,0 km/h (0 Bft)
15.05.2012 07:56 18,2 C 9,4 C 0,1 UV-I 0,9 C 49 % 87 % 26 % 1009,6 hPa 0,0 l/m 2,4 km/h (1 Bft) 0 min 0 min 16,1 km/h (3 Bft)
15.05.2012 07:58 18,2 C 9,5 C 0,1 UV-I 0,8 C 49 % 86 % 23 % 1009,5 hPa 0,0 l/m 2,8 km/h (1 Bft) 0 min 0 min 16,1 km/h (3 Bft)
15.05.2012 08:00 18,2 C 9,5 C 0,1 UV-I 0,9 C 48 % 86 % 26 % 1009,5 hPa 0,0 l/m 2,4 km/h (1 Bft) 0 min 0 min 16,1 km/h (3 Bft)
15.05.2012 08:02 18,1 C 9,5 C 0,1 UV-I 1,0 C 48 % 86 % 29 % 1009,5 hPa 0,0 l/m 3,2 km/h (1 Bft) 0 min 0 min 0,0 km/h (0 Bft)
15.05.2012 08:04 18,1 C 9,5 C 0,0 UV-I 1,0 C 48 % 86 % 29 % 1009,5 hPa 0,0 l/m 3,6 km/h (1 Bft) 0 min 0 min 6,8 km/h (2 Bft)
15.05.2012 08:06 18,1 C 9,6 C 0,0 UV-I 0,9 C 48 % 86 % 26 % 1009,5 hPa 0,0 l/m 4,4 km/h (1 Bft) 0 min 0 min 7,6 km/h (2 Bft)
15.05.2012 08:08 18,1 C 9,6 C 0,1 UV-I 0,9 C 48 % 86 % 26 % 1009,5 hPa 0,0 l/m 4,0 km/h (1 Bft) 0 min 0 min 7,6 km/h (2 Bft)
15.05.2012 08:10 18,1 C 9,6 C 0,1 UV-I 1,0 C 48 % 86 % 29 % 1009,5 hPa 0,0 l/m 3,6 km/h (1 Bft) 0 min 0 min 19,7 km/h (3 Bft)
15.05.2012 08:12 18,1 C 9,6 C 0,1 UV-I 1,1 C 48 % 86 % 31 % 1009,5 hPa 0,0 l/m 3,6 km/h (1 Bft) 0 min 0 min 10,4 km/h (2 Bft)
15.05.2012 08:14 18,1 C 9,7 C 0,1 UV-I 1,2 C 48 % 86 % 34 % 1009,5 hPa 0,0 l/m 3,6 km/h (1 Bft) 0 min 0 min 10,4 km/h (2 Bft)
15.05.2012 08:16 18,1 C 9,6 C 0,1 UV-I 1,3 C 48 % 86 % 37 % 1009,5 hPa 0,0 l/m 3,2 km/h (1 Bft) 0 min 0 min 12,8 km/h (3 Bft)
15.05.2012 08:18 18,0 C 9,6 C 0,1 UV-I 1,3 C 48 % 85 % 37 % 1009,4 hPa 0,0 l/m 2,8 km/h (1 Bft) 0 min 0 min 12,8 km/h (3 Bft)
15.05.2012 08:20 18,1 C 9,7 C 0,1 UV-I 1,2 C 48 % 85 % 34 % 1009,4 hPa 0,0 l/m 3,2 km/h (1 Bft) 0 min 0 min 6,4 km/h (2 Bft)
15.05.2012 08:22 18,0 C 9,7 C 0,1 UV-I 1,6 C 48 % 85 % 46 % 1009,4 hPa 0,0 l/m 3,6 km/h (1 Bft) 0 min 0 min 7,6 km/h (2 Bft)
15.05.2012 08:24 18,0 C 9,9 C 0,3 UV-I 1,5 C 48 % 85 % 43 % 1009,4 hPa 0,0 l/m 4,0 km/h (1 Bft) 0 min 0 min 7,6 km/h (2 Bft)
15.05.2012 08:26 18,0 C 9,9 C 0,3 UV-I 1,7 C 48 % 85 % 49 % 1009,4 hPa 0,0 l/m 4,4 km/h (1 Bft) 0 min 0 min 6,4 km/h (2 Bft)
15.05.2012 08:28 18,0 C 9,9 C 0,2 UV-I 1,7 C 48 % 85 % 49 % 1009,4 hPa 0,0 l/m 4,0 km/h (1 Bft) 0 min 0 min 6,4 km/h (2 Bft)
15.05.2012 08:30 18,0 C 9,8 C 0,2 UV-I 1,8 C 48 % 84 % 51 % 1009,4 hPa 0,0 l/m 4,4 km/h (1 Bft) 0 min 0 min 17,3 km/h (3 Bft)
15.05.2012 08:32 18,0 C 9,8 C 0,2 UV-I 1,7 C 48 % 84 % 49 % 1009,4 hPa 0,0 l/m 4,0 km/h (1 Bft) 0 min 0 min 17,3 km/h (3 Bft)
15.05.2012 08:34 18,0 C 9,9 C 0,2 UV-I 1,6 C 48 % 84 % 46 % 1009,4 hPa 0,0 l/m 3,6 km/h (1 Bft) 0 min 0 min 4,4 km/h (1 Bft)
15.05.2012 08:36 18,0 C 9,8 C 0,2 UV-I 1,8 C 48 % 83 % 51 % 1009,4 hPa 0,0 l/m 4,0 km/h (1 Bft) 0 min 0 min 10,8 km/h (2 Bft)
15.05.2012 08:38 18,0 C 9,9 C 0,2 UV-I 1,7 C 48 % 83 % 49 % 1008,9 hPa 0,0 l/m 4,4 km/h (1 Bft) 0 min 0 min 10,8 km/h (2 Bft)
15.05.2012 08:40 18,0 C 10,0 C 0,2 UV-I 1,6 C 48 % 83 % 46 % 1008,9 hPa 0,0 l/m 4,0 km/h (1 Bft) 0 min 0 min 4,8 km/h (1 Bft)
15.05.2012 08:42 18,0 C 10,0 C 0,2 UV-I 1,9 C 48 % 83 % 54 % 1008,9 hPa 0,0 l/m 4,0 km/h (1 Bft) 0 min 0 min 8,0 km/h (2 Bft)
15.05.2012 08:44 18,0 C 10,1 C 0,5 UV-I 1,9 C 48 % 83 % 54 % 1008,9 hPa 0,0 l/m 4,8 km/h (1 Bft) 0 min 0 min 8,0 km/h (2 Bft)
15.05.2012 08:46 18,0 C 10,0 C 0,5 UV-I 2,0 C 48 % 82 % 57 % 1008,9 hPa 0,0 l/m 5,6 km/h (1 Bft) 0 min 0 min 7,2 km/h (2 Bft)
15.05.2012 08:48 18,0 C 10,0 C 0,4 UV-I 2,0 C 48 % 82 % 57 % 1008,9 hPa 0,0 l/m 4,4 km/h (1 Bft) 0 min 0 min 6,8 km/h (2 Bft)
15.05.2012 08:50 18,0 C 10,0 C 0,4 UV-I 2,2 C 48 % 81 % 63 % 1008,9 hPa 0,0 l/m 5,6 km/h (1 Bft) 0 min 0 min 27,7 km/h (4 Bft)
15.05.2012 08:52 18,0 C 10,1 C 0,4 UV-I 2,1 C 47 % 81 % 60 % 1008,9 hPa 0,0 l/m 5,6 km/h (1 Bft) 0 min 0 min 11,2 km/h (2 Bft)
15.05.2012 08:54 18,0 C 10,1 C 0,4 UV-I 2,1 C 48 % 82 % 60 % 1008,9 hPa 0,0 l/m 4,8 km/h (1 Bft) 0 min 0 min 0,0 km/h (0 Bft)
15.05.2012 08:56 18,0 C 10,3 C 0,4 UV-I 2,0 C 47 % 81 % 57 % 1008,9 hPa 0,0 l/m 4,4 km/h (1 Bft) 0 min 0 min 10,0 km/h (2 Bft)
15.05.2012 08:58 18,0 C 10,3 C 0,6 UV-I 2,1 C 47 % 81 % 60 % 1008,8 hPa 0,0 l/m 4,0 km/h (1 Bft) 0 min 0 min 10,0 km/h (2 Bft)
15.05.2012 09:00 18,0 C 10,2 C 0,6 UV-I 2,2 C 47 % 81 % 63 % 1008,8 hPa 0,0 l/m 4,0 km/h (1 Bft) 0 min 0 min 6,4 km/h (2 Bft)
15.05.2012 09:02 18,0 C 10,3 C 0,6 UV-I 2,2 C 47 % 81 % 63 % 1008,8 hPa 0,0 l/m 3,2 km/h (1 Bft) 0 min 0 min 8,4 km/h (2 Bft)
15.05.2012 09:04 18,0 C 10,4 C 0,4 UV-I 2,1 C 47 % 81 % 60 % 1008,8 hPa 0,0 l/m 4,0 km/h (1 Bft) 0 min 0 min 5,2 km/h (1 Bft)
15.05.2012 09:06 18,0 C 10,3 C 0,4 UV-I 2,2 C 47 % 80 % 63 % 1008,8 hPa 0,0 l/m 4,4 km/h (1 Bft) 0 min 0 min 5,2 km/h (1 Bft)
15.05.2012 09:08 18,0 C 10,4 C 0,3 UV-I 2,1 C 47 % 80 % 60 % 1008,8 hPa 0,0 l/m 4,4 km/h (1 Bft) 0 min 0 min 6,8 km/h (2 Bft)
15.05.2012 09:10 18,0 C 10,4 C 0,3 UV-I 2,0 C 47 % 80 % 57 % 1008,8 hPa 0,0 l/m 4,0 km/h (1 Bft) 0 min 0 min 9,6 km/h (2 Bft)
15.05.2012 09:12 18,0 C 10,5 C 0,3 UV-I 1,9 C 47 % 79 % 54 % 1008,8 hPa 0,0 l/m 4,8 km/h (1 Bft) 0 min 0 min 12,0 km/h (2 Bft)
15.05.2012 09:14 18,0 C 10,4 C 0,5 UV-I 2,0 C 47 % 79 % 57 % 1008,8 hPa 0,0 l/m 4,4 km/h (1 Bft) 0 min 0 min 12,0 km/h (2 Bft)
15.05.2012 09:16 18,0 C 10,4 C 0,5 UV-I 2,5 C 47 % 79 % 71 % 1008,8 hPa 0,0 l/m 4,0 km/h (1 Bft) 0 min 0 min 5,6 km/h (1 Bft)
15.05.2012 09:18 18,1 C 10,5 C 1,9 UV-I 3,5 C 47 % 79 % 100 % 1008,9 hPa 0,0 l/m 4,8 km/h (1 Bft) 2 min 0 min 12,8 km/h (3 Bft)
15.05.2012 09:20 18,0 C 10,6 C 1,9 UV-I 4,2 C 47 % 78 % 100 % 1008,9 hPa 0,0 l/m 5,6 km/h (1 Bft) 2 min 0 min 12,8 km/h (3 Bft)
15.05.2012 09:22 18,0 C 10,7 C 1,9 UV-I 4,1 C 47 % 77 % 100 % 1008,9 hPa 0,0 l/m 6,4 km/h (2 Bft) 2 min 0 min 8,0 km/h (2 Bft)
15.05.2012 09:24 18,0 C 10,7 C 1,9 UV-I 4,1 C 47 % 78 % 100 % 1008,9 hPa 0,0 l/m 6,4 km/h (2 Bft) 2 min 0 min 9,6 km/h (2 Bft)
15.05.2012 09:26 18,0 C 10,8 C 1,9 UV-I 4,6 C 47 % 78 % 100 % 1008,9 hPa 0,0 l/m 6,0 km/h (2 Bft) 2 min 0 min 9,6 km/h (2 Bft)
15.05.2012 09:28 18,0 C 10,8 C 1,7 UV-I 4,7 C 47 % 78 % 100 % 1008,9 hPa 0,0 l/m 6,4 km/h (2 Bft) 2 min 0 min 12,0 km/h (2 Bft)
15.05.2012 09:30 18,0 C 10,8 C 1,7 UV-I 4,4 C 47 % 77 % 100 % 1008,9 hPa 0,0 l/m 6,0 km/h (2 Bft) 2 min 0 min 12,0 km/h (2 Bft)
15.05.2012 09:32 18,0 C 10,9 C 1,7 UV-I 3,9 C 47 % 77 % 100 % 1008,9 hPa 0,0 l/m 5,6 km/h (1 Bft) 2 min 0 min 10,8 km/h (2 Bft)
15.05.2012 09:34 18,0 C 10,8 C 1,8 UV-I 4,1 C 47 % 77 % 100 % 1008,9 hPa 0,0 l/m 6,0 km/h (2 Bft) 2 min 0 min 16,1 km/h (3 Bft)
15.05.2012 09:36 18,0 C 10,9 C 1,8 UV-I 4,9 C 47 % 77 % 100 % 1008,9 hPa 0,0 l/m 6,4 km/h (2 Bft) 2 min 0 min 16,1 km/h (3 Bft)
15.05.2012 09:38 18,0 C 11,1 C 2,6 UV-I 5,5 C 47 % 77 % 100 % 1008,9 hPa 0,0 l/m 7,6 km/h (2 Bft) 2 min 0 min 26,5 km/h (4 Bft)
15.05.2012 09:40 18,0 C 11,2 C 2,6 UV-I 5,8 C 47 % 76 % 100 % 1008,9 hPa 0,0 l/m 8,8 km/h (2 Bft) 2 min 0 min 26,5 km/h (4 Bft)
15.05.2012 09:42 18,0 C 11,2 C 2,6 UV-I 6,0 C 47 % 75 % 100 % 1008,9 hPa 0,0 l/m 8,8 km/h (2 Bft) 2 min 0 min 11,2 km/h (2 Bft)
15.05.2012 09:44 18,0 C 11,3 C 2,5 UV-I 6,0 C 46 % 75 % 100 % 1008,9 hPa 0,0 l/m 9,2 km/h (2 Bft) 2 min 0 min 10,4 km/h (2 Bft)
15.05.2012 09:46 18,0 C 11,3 C 2,5 UV-I 5,6 C 47 % 76 % 100 % 1008,9 hPa 0,0 l/m 8,0 km/h (2 Bft) 2 min 0 min 8,4 km/h (2 Bft)
15.05.2012 09:48 18,0 C 11,3 C 2,5 UV-I 6,0 C 47 % 76 % 100 % 1008,9 hPa 0,0 l/m 7,6 km/h (2 Bft) 2 min 0 min 5,6 km/h (1 Bft)
15.05.2012 09:50 18,0 C 11,4 C 2,5 UV-I 6,2 C 47 % 75 % 100 % 1008,9 hPa 0,0 l/m 5,6 km/h (1 Bft) 2 min 0 min 4,4 km/h (1 Bft)
15.05.2012 09:52 18,0 C 11,6 C 2,5 UV-I 5,8 C 47 % 75 % 100 % 1008,9 hPa 0,0 l/m 5,2 km/h (1 Bft) 2 min 0 min 4,4 km/h (1 Bft)
15.05.2012 09:54 18,0 C 11,5 C 1,4 UV-I 5,6 C 47 % 75 % 100 % 1008,9 hPa 0,0 l/m 4,4 km/h (1 Bft) 2 min 0 min 4,0 km/h (1 Bft)
15.05.2012 09:56 18,0 C 11,7 C 1,4 UV-I 5,1 C 47 % 75 % 100 % 1008,9 hPa 0,0 l/m 4,0 km/h (1 Bft) 2 min 0 min 5,6 km/h (1 Bft)
15.05.2012 09:58 18,0 C 11,6 C 1,7 UV-I 5,2 C 47 % 74 % 100 % 1008,4 hPa 0,0 l/m 4,8 km/h (1 Bft) 2 min 0 min 5,6 km/h (1 Bft)
15.05.2012 10:00 18,0 C 11,6 C 1,7 UV-I 5,2 C 47 % 74 % 100 % 1008,4 hPa 0,0 l/m 5,2 km/h (1 Bft) 2 min 0 min 4,4 km/h (1 Bft)
15.05.2012 10:02 18,0 C 11,7 C 1,7 UV-I 5,1 C 47 % 74 % 100 % 1008,4 hPa 0,0 l/m 5,6 km/h (1 Bft) 2 min 0 min 15,3 km/h (3 Bft)
15.05.2012 10:04 18,0 C 11,6 C 1,2 UV-I 4,7 C 47 % 74 % 100 % 1008,4 hPa 0,0 l/m 6,0 km/h (2 Bft) 2 min 0 min 5,2 km/h (1 Bft)
15.05.2012 10:06 18,0 C 11,6 C 1,2 UV-I 4,1 C 47 % 73 % 100 % 1008,4 hPa 0,0 l/m 7,2 km/h (2 Bft) 2 min 0 min 10,4 km/h (2 Bft)
15.05.2012 10:08 18,0 C 11,5 C 1,1 UV-I 3,8 C 46 % 73 % 100 % 1008,4 hPa 0,0 l/m 6,4 km/h (2 Bft) 2 min 0 min 10,4 km/h (2 Bft)
15.05.2012 10:10 18,0 C 11,5 C 1,1 UV-I 3,3 C 46 % 73 % 94 % 1008,4 hPa 0,0 l/m 6,8 km/h (2 Bft) 2 min 0 min 17,3 km/h (3 Bft)
15.05.2012 10:12 18,0 C 11,6 C 1,1 UV-I 4,1 C 46 % 73 % 100 % 1008,4 hPa 0,0 l/m 7,2 km/h (2 Bft) 2 min 0 min 17,3 km/h (3 Bft)
15.05.2012 10:14 18,0 C 11,7 C 3,5 UV-I 4,9 C 46 % 72 % 100 % 1008,4 hPa 0,0 l/m 7,2 km/h (2 Bft) 2 min 0 min 17,3 km/h (3 Bft)
15.05.2012 10:16 18,0 C 11,9 C 3,5 UV-I 5,7 C 46 % 72 % 100 % 1008,4 hPa 0,0 l/m 7,2 km/h (2 Bft) 2 min 0 min 14,5 km/h (3 Bft)
15.05.2012 10:18 18,0 C 12,0 C 3,5 UV-I 6,2 C 46 % 72 % 100 % 1008,4 hPa 0,0 l/m 6,4 km/h (2 Bft) 2 min 0 min 16,1 km/h (3 Bft)
15.05.2012 10:20 18,0 C 12,0 C 3,5 UV-I 6,3 C 46 % 72 % 100 % 1008,4 hPa 0,0 l/m 6,4 km/h (2 Bft) 2 min 0 min 16,1 km/h (3 Bft)
15.05.2012 10:22 18,0 C 12,0 C 3,5 UV-I 6,2 C 46 % 71 % 100 % 1008,4 hPa 0,0 l/m 8,0 km/h (2 Bft) 2 min 0 min 12,4 km/h (3 Bft)
15.05.2012 10:24 18,0 C 12,0 C 2,2 UV-I 5,8 C 46 % 71 % 100 % 1008,4 hPa 0,0 l/m 7,6 km/h (2 Bft) 2 min 0 min 12,4 km/h (3 Bft)
15.05.2012 10:26 18,0 C 12,1 C 2,2 UV-I 5,3 C 46 % 71 % 100 % 1008,4 hPa 0,0 l/m 7,2 km/h (2 Bft) 2 min 0 min 11,6 km/h (2 Bft)
15.05.2012 10:28 18,0 C 12,1 C 2,6 UV-I 5,5 C 46 % 71 % 100 % 1008,4 hPa 0,0 l/m 7,6 km/h (2 Bft) 2 min 0 min 11,6 km/h (2 Bft)
15.05.2012 10:30 18,0 C 12,1 C 2,6 UV-I 5,7 C 46 % 71 % 100 % 1008,4 hPa 0,0 l/m 8,0 km/h (2 Bft) 2 min 0 min 12,0 km/h (2 Bft)
15.05.2012 10:32 18,0 C 12,1 C 2,6 UV-I 5,5 C 46 % 70 % 100 % 1008,4 hPa 0,0 l/m 8,0 km/h (2 Bft) 2 min 0 min 12,0 km/h (2 Bft)
15.05.2012 10:34 18,0 C 12,2 C 2,6 UV-I 5,1 C 46 % 71 % 100 % 1008,4 hPa 0,0 l/m 7,2 km/h (2 Bft) 2 min 0 min 9,2 km/h (2 Bft)
15.05.2012 10:36 18,0 C 12,2 C 2,6 UV-I 4,8 C 46 % 71 % 100 % 1008,4 hPa 0,0 l/m 6,8 km/h (2 Bft) 2 min 0 min 9,2 km/h (2 Bft)
15.05.2012 10:38 18,0 C 12,1 C 0,7 UV-I 4,3 C 46 % 71 % 100 % 1008,3 hPa 0,0 l/m 6,8 km/h (2 Bft) 2 min 0 min 9,2 km/h (2 Bft)
15.05.2012 10:40 18,0 C 12,0 C 0,7 UV-I 3,9 C 46 % 71 % 100 % 1008,3 hPa 0,0 l/m 6,8 km/h (2 Bft) 2 min 0 min 6,4 km/h (2 Bft)
15.05.2012 10:42 18,0 C 12,0 C 0,7 UV-I 3,4 C 46 % 71 % 97 % 1008,3 hPa 0,0 l/m 6,0 km/h (2 Bft) 2 min 0 min 6,8 km/h (2 Bft)
15.05.2012 10:44 18,0 C 11,9 C 0,7 UV-I 2,9 C 46 % 71 % 83 % 1008,3 hPa 0,0 l/m 5,6 km/h (1 Bft) 2 min 0 min 8,0 km/h (2 Bft)
15.05.2012 10:46 18,0 C 11,9 C 0,7 UV-I 2,7 C 46 % 71 % 77 % 1008,3 hPa 0,0 l/m 5,6 km/h (1 Bft) 0 min 0 min 8,0 km/h (2 Bft)
15.05.2012 10:48 18,0 C 11,8 C 1,3 UV-I 2,5 C 46 % 72 % 71 % 1008,3 hPa 0,0 l/m 5,6 km/h (1 Bft) 0 min 0 min 6,4 km/h (2 Bft)
15.05.2012 10:50 18,0 C 11,8 C 1,3 UV-I 2,9 C 46 % 72 % 83 % 1008,3 hPa 0,0 l/m 4,8 km/h (1 Bft) 2 min 0 min 6,4 km/h (2 Bft)
15.05.2012 10:52 18,0 C 11,9 C 1,3 UV-I 3,8 C 46 % 73 % 100 % 1008,3 hPa 0,0 l/m 4,8 km/h (1 Bft) 2 min 0 min 6,0 km/h (2 Bft)
15.05.2012 10:54 18,0 C 12,0 C 4,1 UV-I 5,2 C 46 % 73 % 100 % 1008,3 hPa 0,0 l/m 4,8 km/h (1 Bft) 2 min 0 min 6,0 km/h (2 Bft)
15.05.2012 10:56 18,0 C 12,1 C 4,1 UV-I 6,3 C 46 % 73 % 100 % 1008,3 hPa 0,0 l/m 4,8 km/h (1 Bft) 2 min 0 min 13,7 km/h (3 Bft)
15.05.2012 10:58 18,0 C 12,3 C 2,7 UV-I 6,4 C 47 % 73 % 100 % 1008,2 hPa 0,0 l/m 5,2 km/h (1 Bft) 2 min 0 min 13,7 km/h (3 Bft)
15.05.2012 11:00 18,0 C 12,4 C 2,7 UV-I 5,7 C 47 % 73 % 100 % 1008,2 hPa 0,0 l/m 5,6 km/h (1 Bft) 2 min 0 min 9,6 km/h (2 Bft)
15.05.2012 11:02 18,0 C 12,4 C 2,7 UV-I 5,2 C 47 % 72 % 100 % 1008,2 hPa 0,0 l/m 6,4 km/h (2 Bft) 2 min 0 min 9,2 km/h (2 Bft)
15.05.2012 11:04 18,0 C 12,3 C 1,1 UV-I 4,7 C 47 % 72 % 100 % 1008,2 hPa 0,0 l/m 6,4 km/h (2 Bft) 2 min 0 min 18,1 km/h (3 Bft)
15.05.2012 11:06 18,0 C 12,4 C 1,1 UV-I 4,9 C 46 % 72 % 100 % 1008,2 hPa 0,0 l/m 8,0 km/h (2 Bft) 2 min 0 min 18,1 km/h (3 Bft)
15.05.2012 11:08 18,0 C 12,4 C 3,8 UV-I 5,4 C 47 % 72 % 100 % 1008,2 hPa 0,0 l/m 8,4 km/h (2 Bft) 2 min 0 min 13,3 km/h (3 Bft)
15.05.2012 11:10 18,0 C 12,6 C 3,8 UV-I 5,9 C 46 % 72 % 100 % 1008,2 hPa 0,0 l/m 7,6 km/h (2 Bft) 2 min 0 min 8,0 km/h (2 Bft)
15.05.2012 11:12 18,0 C 12,6 C 3,8 UV-I 6,4 C 46 % 72 % 100 % 1008,2 hPa 0,0 l/m 8,8 km/h (2 Bft) 2 min 0 min 15,7 km/h (3 Bft)
15.05.2012 11:14 18,0 C 12,8 C 3,8 UV-I 6,4 C 46 % 71 % 100 % 1008,2 hPa 0,0 l/m 8,4 km/h (2 Bft) 2 min 0 min 15,7 km/h (3 Bft)
15.05.2012 11:16 18,0 C 12,9 C 3,8 UV-I 6,6 C 47 % 71 % 100 % 1008,2 hPa 0,0 l/m 8,0 km/h (2 Bft) 2 min 0 min 17,7 km/h (3 Bft)
15.05.2012 11:18 18,0 C 13,1 C 3,8 UV-I 6,8 C 47 % 70 % 100 % 1007,9 hPa 0,0 l/m 7,2 km/h (2 Bft) 2 min 0 min 17,7 km/h (3 Bft)
15.05.2012 11:20 18,0 C 13,1 C 3,8 UV-I 7,2 C 47 % 70 % 100 % 1007,9 hPa 0,0 l/m 7,6 km/h (2 Bft) 2 min 0 min 16,1 km/h (3 Bft)
15.05.2012 11:22 18,0 C 13,1 C 3,8 UV-I 7,5 C 46 % 70 % 100 % 1007,9 hPa 0,0 l/m 7,2 km/h (2 Bft) 2 min 0 min 16,1 km/h (3 Bft)
15.05.2012 11:24 18,0 C 13,2 C 3,8 UV-I 7,5 C 46 % 68 % 100 % 1007,9 hPa 0,0 l/m 7,6 km/h (2 Bft) 2 min 0 min 27,3 km/h (4 Bft)
15.05.2012 11:26 18,0 C 13,3 C 3,8 UV-I 7,6 C 46 % 67 % 100 % 1007,9 hPa 0,0 l/m 7,6 km/h (2 Bft) 2 min 0 min 27,3 km/h (4 Bft)
15.05.2012 11:28 18,0 C 13,3 C 3,1 UV-I 7,0 C 46 % 67 % 100 % 1007,9 hPa 0,0 l/m 7,2 km/h (2 Bft) 2 min 0 min 16,1 km/h (3 Bft)
15.05.2012 11:30 18,0 C 13,3 C 3,1 UV-I 6,6 C 46 % 66 % 100 % 1007,9 hPa 0,0 l/m 6,8 km/h (2 Bft) 2 min 0 min 16,1 km/h (3 Bft)
15.05.2012 11:32 18,0 C 13,3 C 3,1 UV-I 6,3 C 46 % 65 % 100 % 1007,9 hPa 0,0 l/m 6,4 km/h (2 Bft) 2 min 0 min 9,2 km/h (2 Bft)
15.05.2012 11:34 18,0 C 13,4 C 3,0 UV-I 6,6 C 46 % 64 % 100 % 1007,9 hPa 0,0 l/m 6,8 km/h (2 Bft) 2 min 0 min 17,7 km/h (3 Bft)
15.05.2012 11:36 18,0 C 13,5 C 3,0 UV-I 6,7 C 46 % 65 % 100 % 1007,9 hPa 0,0 l/m 6,4 km/h (2 Bft) 2 min 0 min 17,7 km/h (3 Bft)
15.05.2012 11:38 18,0 C 13,4 C 1,9 UV-I 6,1 C 46 % 64 % 100 % 1007,6 hPa 0,0 l/m 7,2 km/h (2 Bft) 2 min 0 min 17,3 km/h (3 Bft)
15.05.2012 11:40 18,1 C 13,2 C 1,9 UV-I 5,6 C 46 % 65 % 100 % 1007,6 hPa 0,0 l/m 7,2 km/h (2 Bft) 2 min 0 min 18,9 km/h (3 Bft)
15.05.2012 11:42 18,1 C 13,3 C 1,9 UV-I 5,2 C 46 % 65 % 100 % 1007,6 hPa 0,0 l/m 7,6 km/h (2 Bft) 2 min 0 min 18,9 km/h (3 Bft)
15.05.2012 11:44 18,1 C 13,1 C 1,8 UV-I 4,8 C 45 % 65 % 100 % 1007,6 hPa 0,0 l/m 7,6 km/h (2 Bft) 2 min 0 min 13,7 km/h (3 Bft)
15.05.2012 11:46 18,1 C 13,1 C 1,8 UV-I 4,4 C 45 % 65 % 100 % 1007,6 hPa 0,0 l/m 7,6 km/h (2 Bft) 2 min 2 min 11,2 km/h (2 Bft)
15.05.2012 11:48 18,0 C 12,9 C 1,3 UV-I 3,6 C 46 % 66 % 100 % 1007,6 hPa 0,0 l/m 7,2 km/h (2 Bft) 2 min 0 min 11,2 km/h (2 Bft)
15.05.2012 11:50 18,1 C 12,7 C 1,3 UV-I 3,1 C 46 % 67 % 89 % 1007,6 hPa 0,0 l/m 6,4 km/h (2 Bft) 2 min 0 min 12,0 km/h (2 Bft)
15.05.2012 11:52 18,0 C 12,7 C 1,3 UV-I 2,9 C 46 % 69 % 83 % 1007,6 hPa 0,0 l/m 6,4 km/h (2 Bft) 2 min 0 min 12,0 km/h (2 Bft)
15.05.2012 11:54 18,0 C 12,8 C 2,5 UV-I 3,6 C 46 % 70 % 100 % 1007,6 hPa 0,0 l/m 6,4 km/h (2 Bft) 2 min 0 min 5,6 km/h (1 Bft)
15.05.2012 11:56 18,1 C 12,9 C 2,5 UV-I 4,7 C 46 % 70 % 100 % 1007,6 hPa 0,0 l/m 6,0 km/h (2 Bft) 2 min 0 min 13,7 km/h (3 Bft)
15.05.2012 11:58 18,1 C 13,1 C 3,3 UV-I 5,3 C 46 % 69 % 100 % 1007,7 hPa 0,0 l/m 6,4 km/h (2 Bft) 2 min 0 min 13,7 km/h (3 Bft)
15.05.2012 12:00 18,1 C 13,3 C 3,3 UV-I 5,7 C 46 % 68 % 100 % 1007,7 hPa 0,0 l/m 7,2 km/h (2 Bft) 2 min 0 min 21,3 km/h (4 Bft)
15.05.2012 12:02 18,1 C 13,2 C 3,3 UV-I 6,0 C 46 % 68 % 100 % 1007,7 hPa 0,0 l/m 7,6 km/h (2 Bft) 2 min 0 min 21,3 km/h (4 Bft)
15.05.2012 12:04 18,1 C 13,2 C 3,3 UV-I 6,0 C 46 % 68 % 100 % 1007,7 hPa 0,0 l/m 7,6 km/h (2 Bft) 2 min 0 min 10,4 km/h (2 Bft)
15.05.2012 12:06 18,1 C 13,6 C 3,3 UV-I 7,4 C 46 % 69 % 100 % 1007,7 hPa 0,0 l/m 7,2 km/h (2 Bft) 2 min 0 min 10,4 km/h (2 Bft)
15.05.2012 12:08 18,1 C 13,6 C 2,3 UV-I 7,4 C 46 % 67 % 100 % 1007,7 hPa 0,0 l/m 7,6 km/h (2 Bft) 2 min 0 min 10,4 km/h (2 Bft)
15.05.2012 12:10 18,2 C 13,3 C 2,3 UV-I 6,6 C 46 % 65 % 100 % 1007,7 hPa 0,0 l/m 8,8 km/h (2 Bft) 2 min 0 min 29,7 km/h (5 Bft)
15.05.2012 12:12 18,2 C 12,9 C 2,3 UV-I 5,5 C 46 % 65 % 100 % 1007,7 hPa 0,0 l/m 8,8 km/h (2 Bft) 2 min 0 min 18,5 km/h (3 Bft)
15.05.2012 12:14 18,2 C 12,4 C 0,9 UV-I 5,1 C 46 % 65 % 100 % 1007,7 hPa 0,0 l/m 9,2 km/h (2 Bft) 2 min 0 min 12,4 km/h (3 Bft)
15.05.2012 12:16 18,2 C 12,1 C 0,9 UV-I 4,2 C 46 % 65 % 100 % 1007,7 hPa 0,0 l/m 11,2 km/h (2 Bft) 2 min 0 min 20,9 km/h (4 Bft)
15.05.2012 12:18 18,2 C 11,7 C 0,7 UV-I 3,5 C 46 % 66 % 100 % 1007,8 hPa 0,0 l/m 13,3 km/h (3 Bft) 2 min 0 min 20,9 km/h (4 Bft)
15.05.2012 12:20 18,3 C 11,3 C 0,7 UV-I 3,2 C 46 % 67 % 91 % 1007,8 hPa 0,0 l/m 12,4 km/h (3 Bft) 2 min 0 min 13,3 km/h (3 Bft)
15.05.2012 12:22 18,2 C 11,2 C 0,7 UV-I 2,6 C 46 % 68 % 74 % 1007,8 hPa 0,0 l/m 11,2 km/h (2 Bft) 0 min 0 min 4,4 km/h (1 Bft)
15.05.2012 12:24 18,2 C 11,1 C 0,5 UV-I 2,3 C 46 % 69 % 66 % 1007,8 hPa 0,0 l/m 11,2 km/h (2 Bft) 0 min 0 min 12,0 km/h (2 Bft)
15.05.2012 12:26 18,4 C 11,1 C 0,5 UV-I 1,9 C 46 % 69 % 54 % 1007,8 hPa 0,0 l/m 11,2 km/h (2 Bft) 0 min 2 min 14,1 km/h (3 Bft)
15.05.2012 12:28 18,4 C 10,9 C 0,0 UV-I 1,4 C 46 % 70 % 40 % 1007,8 hPa 0,0 l/m 9,6 km/h (2 Bft) 0 min 2 min 14,1 km/h (3 Bft)
15.05.2012 12:30 18,4 C 10,7 C 0,0 UV-I 0,9 C 45 % 71 % 26 % 1007,8 hPa 0,0 l/m 9,2 km/h (2 Bft) 0 min 2 min 33,3 km/h (5 Bft)
15.05.2012 12:32 18,4 C 10,5 C 0,0 UV-I 0,4 C 45 % 71 % 11 % 1007,8 hPa 0,0 l/m 10,4 km/h (2 Bft) 0 min 2 min 33,3 km/h (5 Bft)
15.05.2012 12:34 18,4 C 10,3 C 0,0 UV-I 0,2 C 45 % 72 % 6 % 1007,8 hPa 0,0 l/m 10,8 km/h (2 Bft) 0 min 2 min 15,3 km/h (3 Bft)
15.05.2012 12:36 18,4 C 10,1 C 0,0 UV-I 0,0 C 45 % 73 % 0 % 1007,8 hPa 0,1 l/m 10,8 km/h (2 Bft) 0 min 2 min 15,3 km/h (3 Bft)
15.05.2012 12:38 18,4 C 9,9 C 0,0 UV-I 0,0 C 45 % 73 % 0 % 1008,4 hPa 0,0 l/m 9,6 km/h (2 Bft) 0 min 2 min 21,3 km/h (4 Bft)
15.05.2012 12:40 18,4 C 9,5 C 0,0 UV-I 0,0 C 45 % 73 % 0 % 1008,4 hPa 0,4 l/m 9,2 km/h (2 Bft) 0 min 2 min 33,3 km/h (5 Bft)
15.05.2012 12:42 18,4 C 9,2 C 0,0 UV-I 0,0 C 46 % 74 % 0 % 1008,4 hPa 0,2 l/m 8,0 km/h (2 Bft) 0 min 2 min 12,4 km/h (3 Bft)
15.05.2012 12:44 18,4 C 8,8 C 0,0 UV-I 0,0 C 46 % 74 % 0 % 1008,4 hPa 0,0 l/m 8,0 km/h (2 Bft) 0 min 2 min 12,4 km/h (3 Bft)
15.05.2012 12:46 18,4 C 8,7 C 0,0 UV-I 0,0 C 46 % 75 % 0 % 1008,4 hPa 0,1 l/m 7,2 km/h (2 Bft) 0 min 2 min 7,2 km/h (2 Bft)
15.05.2012 12:48 18,4 C 8,4 C 0,0 UV-I 0,0 C 46 % 76 % 0 % 1008,4 hPa 0,1 l/m 7,6 km/h (2 Bft) 0 min 2 min 9,6 km/h (2 Bft)
15.05.2012 12:50 18,4 C 8,1 C 0,0 UV-I 0,0 C 46 % 78 % 0 % 1008,4 hPa 0,0 l/m 7,6 km/h (2 Bft) 0 min 2 min 10,0 km/h (2 Bft)
15.05.2012 12:52 18,4 C 8,0 C 0,0 UV-I 0,0 C 46 % 78 % 0 % 1008,4 hPa 0,1 l/m 7,6 km/h (2 Bft) 0 min 2 min 10,0 km/h (2 Bft)
15.05.2012 12:54 18,4 C 7,9 C 0,0 UV-I 0,0 C 46 % 80 % 0 % 1008,4 hPa 0,0 l/m 6,8 km/h (2 Bft) 0 min 2 min 7,6 km/h (2 Bft)
15.05.2012 12:56 18,4 C 7,9 C 0,0 UV-I 0,0 C 46 % 80 % 0 % 1008,4 hPa 0,0 l/m 4,8 km/h (1 Bft) 0 min 2 min 6,0 km/h (2 Bft)
15.05.2012 12:58 18,4 C 7,9 C 0,0 UV-I 0,0 C 46 % 80 % 0 % 1008,9 hPa 0,1 l/m 4,0 km/h (1 Bft) 0 min 2 min 8,0 km/h (2 Bft)
15.05.2012 13:00 18,2 C 7,9 C 0,0 UV-I 0,0 C 46 % 82 % 0 % 1008,9 hPa 0,0 l/m 3,2 km/h (1 Bft) 0 min 2 min 9,2 km/h (2 Bft)
15.05.2012 13:02 18,2 C 7,7 C 0,0 UV-I 0,0 C 46 % 82 % 0 % 1008,9 hPa 0,0 l/m 2,0 km/h (1 Bft) 0 min 2 min 9,2 km/h (2 Bft)
15.05.2012 13:04 18,3 C 7,7 C 0,0 UV-I 0,0 C 46 % 84 % 0 % 1008,9 hPa 0,1 l/m 2,4 km/h (1 Bft) 0 min 2 min 4,0 km/h (1 Bft)
15.05.2012 13:06 18,3 C 7,6 C 0,0 UV-I 0,0 C 46 % 83 % 0 % 1008,9 hPa 0,0 l/m 2,8 km/h (1 Bft) 0 min 2 min 5,2 km/h (1 Bft)
15.05.2012 13:08 18,3 C 7,6 C 0,0 UV-I 0,0 C 46 % 84 % 0 % 1008,9 hPa 0,0 l/m 3,6 km/h (1 Bft) 0 min 2 min 6,8 km/h (2 Bft)
15.05.2012 13:10 18,2 C 7,6 C 0,0 UV-I 0,0 C 47 % 84 % 0 % 1008,9 hPa 0,1 l/m 3,2 km/h (1 Bft) 0 min 2 min 6,8 km/h (2 Bft)
15.05.2012 13:12 18,2 C 7,5 C 0,0 UV-I 0,0 C 47 % 84 % 0 % 1008,9 hPa 0,0 l/m 2,4 km/h (1 Bft) 0 min 2 min 0,0 km/h (0 Bft)
15.05.2012 13:14 18,2 C 7,5 C 0,2 UV-I 0,0 C 47 % 84 % 0 % 1008,9 hPa 0,0 l/m 3,2 km/h (1 Bft) 0 min 2 min 14,5 km/h (3 Bft)
15.05.2012 13:16 18,2 C 7,6 C 0,2 UV-I 0,0 C 47 % 85 % 0 % 1008,9 hPa 0,0 l/m 3,2 km/h (1 Bft) 0 min 2 min 14,5 km/h (3 Bft)
15.05.2012 13:18 18,2 C 7,5 C 0,7 UV-I 0,0 C 47 % 85 % 0 % 1008,9 hPa 0,1 l/m 4,0 km/h (1 Bft) 0 min 2 min 8,4 km/h (2 Bft)
15.05.2012 13:20 18,2 C 7,7 C 0,7 UV-I 0,0 C 47 % 86 % 0 % 1008,9 hPa 0,0 l/m 3,6 km/h (1 Bft) 0 min 2 min 8,4 km/h (2 Bft)
15.05.2012 13:22 18,2 C 7,6 C 0,7 UV-I 0,0 C 47 % 86 % 0 % 1008,9 hPa 0,2 l/m 4,8 km/h (1 Bft) 0 min 2 min 11,2 km/h (2 Bft)
15.05.2012 13:24 18,2 C 7,6 C 0,6 UV-I 0,0 C 47 % 86 % 0 % 1008,9 hPa 0,1 l/m 5,6 km/h (1 Bft) 0 min 2 min 11,2 km/h (2 Bft)
15.05.2012 13:26 18,2 C 7,6 C 0,6 UV-I 0,0 C 47 % 86 % 0 % 1008,9 hPa 0,0 l/m 5,2 km/h (1 Bft) 0 min 2 min 13,7 km/h (3 Bft)
15.05.2012 13:28 18,2 C 7,6 C 0,6 UV-I 0,0 C 47 % 86 % 0 % 1008,9 hPa 0,1 l/m 6,0 km/h (2 Bft) 0 min 2 min 13,7 km/h (3 Bft)
15.05.2012 13:30 18,1 C 7,6 C 0,6 UV-I 0,0 C 48 % 86 % 0 % 1008,9 hPa 0,0 l/m 7,2 km/h (2 Bft) 0 min 0 min 10,4 km/h (2 Bft)
15.05.2012 13:32 18,2 C 7,6 C 0,6 UV-I 0,0 C 48 % 87 % 0 % 1008,9 hPa 0,0 l/m 7,2 km/h (2 Bft) 0 min 0 min 10,4 km/h (2 Bft)
15.05.2012 13:34 18,2 C 7,6 C 1,0 UV-I 0,3 C 48 % 87 % 9 % 1008,9 hPa 0,0 l/m 6,4 km/h (2 Bft) 0 min 0 min 5,2 km/h (1 Bft)
15.05.2012 13:36 18,2 C 7,6 C 1,0 UV-I 0,6 C 48 % 87 % 17 % 1008,9 hPa 0,0 l/m 6,0 km/h (2 Bft) 0 min 0 min 4,4 km/h (1 Bft)
15.05.2012 13:38 18,2 C 7,9 C 1,2 UV-I 0,6 C 48 % 87 % 17 % 1008,9 hPa 0,1 l/m 5,6 km/h (1 Bft) 0 min 0 min 4,8 km/h (1 Bft)
15.05.2012 13:40 18,2 C 7,9 C 1,2 UV-I 0,9 C 48 % 87 % 26 % 1008,9 hPa 0,0 l/m 5,2 km/h (1 Bft) 0 min 0 min 4,8 km/h (1 Bft)
15.05.2012 13:42 18,2 C 7,9 C 1,2 UV-I 0,9 C 48 % 87 % 26 % 1008,9 hPa 0,0 l/m 5,2 km/h (1 Bft) 0 min 0 min 7,6 km/h (2 Bft)
15.05.2012 13:44 18,2 C 7,9 C 1,2 UV-I 0,8 C 48 % 87 % 23 % 1008,9 hPa 0,1 l/m 6,0 km/h (2 Bft) 0 min 2 min 14,9 km/h (3 Bft)
15.05.2012 13:46 18,2 C 7,9 C 1,2 UV-I 0,6 C 48 % 87 % 17 % 1008,9 hPa 0,0 l/m 7,2 km/h (2 Bft) 0 min 0 min 14,9 km/h (3 Bft)
15.05.2012 13:48 18,2 C 7,9 C 1,0 UV-I 0,6 C 48 % 88 % 17 % 1008,9 hPa 0,0 l/m 7,2 km/h (2 Bft) 0 min 2 min 6,8 km/h (2 Bft)
15.05.2012 13:50 18,2 C 8,0 C 1,0 UV-I 0,8 C 48 % 88 % 23 % 1008,9 hPa 0,1 l/m 7,6 km/h (2 Bft) 0 min 0 min 18,1 km/h (3 Bft)
15.05.2012 13:52 18,2 C 8,1 C 1,0 UV-I 1,1 C 49 % 88 % 31 % 1008,9 hPa 0,0 l/m 7,2 km/h (2 Bft) 0 min 0 min 18,1 km/h (3 Bft)
15.05.2012 13:54 18,3 C 8,3 C 2,0 UV-I 1,4 C 49 % 89 % 40 % 1008,9 hPa 0,0 l/m 6,8 km/h (2 Bft) 0 min 0 min 4,0 km/h (1 Bft)
15.05.2012 13:56 18,3 C 8,4 C 2,0 UV-I 1,9 C 49 % 89 % 54 % 1008,9 hPa 0,1 l/m 5,6 km/h (1 Bft) 0 min 0 min 7,2 km/h (2 Bft)
15.05.2012 13:58 18,2 C 8,6 C 2,6 UV-I 2,3 C 49 % 90 % 66 % 1008,2 hPa 0,0 l/m 5,6 km/h (1 Bft) 0 min 0 min 11,6 km/h (2 Bft)
15.05.2012 14:00 18,4 C 9,0 C 2,6 UV-I 3,2 C 49 % 90 % 91 % 1008,2 hPa 0,0 l/m 5,6 km/h (1 Bft) 2 min 0 min 12,8 km/h (3 Bft)
15.05.2012 14:02 18,4 C 9,0 C 2,6 UV-I 4,3 C 49 % 90 % 100 % 1008,2 hPa 0,0 l/m 5,6 km/h (1 Bft) 2 min 0 min 13,3 km/h (3 Bft)
15.05.2012 14:04 18,5 C 9,2 C 2,9 UV-I 5,2 C 49 % 90 % 100 % 1008,2 hPa 0,1 l/m 5,6 km/h (1 Bft) 2 min 0 min 6,8 km/h (2 Bft)
15.05.2012 14:06 18,6 C 9,5 C 2,9 UV-I 5,4 C 49 % 90 % 100 % 1008,2 hPa 0,0 l/m 6,0 km/h (2 Bft) 2 min 0 min 10,4 km/h (2 Bft)
15.05.2012 14:08 18,6 C 9,5 C 2,0 UV-I 5,3 C 49 % 89 % 100 % 1008,2 hPa 0,0 l/m 6,8 km/h (2 Bft) 2 min 0 min 10,4 km/h (2 Bft)
15.05.2012 14:10 18,7 C 9,6 C 2,0 UV-I 5,0 C 49 % 89 % 100 % 1008,2 hPa 0,1 l/m 6,0 km/h (2 Bft) 2 min 0 min 5,6 km/h (1 Bft)
15.05.2012 14:12 18,7 C 9,6 C 2,0 UV-I 4,7 C 49 % 89 % 100 % 1008,2 hPa 0,0 l/m 5,2 km/h (1 Bft) 2 min 0 min 7,6 km/h (2 Bft)
15.05.2012 14:14 18,8 C 9,6 C 1,7 UV-I 4,7 C 49 % 89 % 100 % 1008,2 hPa 0,0 l/m 5,2 km/h (1 Bft) 2 min 0 min 8,0 km/h (2 Bft)
15.05.2012 14:16 18,8 C 9,6 C 1,7 UV-I 4,5 C 49 % 87 % 100 % 1008,2 hPa 0,1 l/m 5,6 km/h (1 Bft) 2 min 0 min 8,0 km/h (2 Bft)
15.05.2012 14:18 18,8 C 9,7 C 1,4 UV-I 4,2 C 49 % 87 % 100 % 1008,4 hPa 0,0 l/m 4,4 km/h (1 Bft) 2 min 0 min 9,2 km/h (2 Bft)
15.05.2012 14:20 18,9 C 9,6 C 1,4 UV-I 4,0 C 49 % 86 % 100 % 1008,4 hPa 0,0 l/m 4,8 km/h (1 Bft) 2 min 0 min 9,2 km/h (2 Bft)
15.05.2012 14:22 18,9 C 9,6 C 1,4 UV-I 3,5 C 48 % 86 % 100 % 1008,4 hPa 0,1 l/m 5,6 km/h (1 Bft) 2 min 0 min 12,0 km/h (2 Bft)
15.05.2012 14:24 18,9 C 9,6 C 1,0 UV-I 3,1 C 48 % 86 % 89 % 1008,4 hPa 0,0 l/m 6,0 km/h (2 Bft) 2 min 0 min 12,0 km/h (2 Bft)
15.05.2012 14:26 18,9 C 9,7 C 1,0 UV-I 2,7 C 48 % 86 % 77 % 1008,4 hPa 0,0 l/m 5,2 km/h (1 Bft) 0 min 0 min 5,2 km/h (1 Bft)
15.05.2012 14:28 18,9 C 9,6 C 0,7 UV-I 2,5 C 48 % 86 % 71 % 1008,4 hPa 0,1 l/m 5,6 km/h (1 Bft) 0 min 0 min 5,2 km/h (1 Bft)
15.05.2012 14:30 18,9 C 9,5 C 0,7 UV-I 2,3 C 47 % 86 % 66 % 1008,4 hPa 0,0 l/m 5,2 km/h (1 Bft) 0 min 0 min 4,0 km/h (1 Bft)
15.05.2012 14:32 18,9 C 9,5 C 0,7 UV-I 2,1 C 47 % 86 % 60 % 1008,4 hPa 0,0 l/m 5,2 km/h (1 Bft) 0 min 0 min 24,5 km/h (4 Bft)
15.05.2012 14:34 18,9 C 9,4 C 0,6 UV-I 2,0 C 47 % 85 % 57 % 1008,4 hPa 0,0 l/m 4,8 km/h (1 Bft) 0 min 2 min 24,5 km/h (4 Bft)
15.05.2012 14:36 18,9 C 9,5 C 0,6 UV-I 1,6 C 47 % 86 % 46 % 1008,4 hPa 0,1 l/m 4,8 km/h (1 Bft) 0 min 2 min 6,8 km/h (2 Bft)
15.05.2012 14:38 18,8 C 9,5 C 0,6 UV-I 1,5 C 47 % 86 % 43 % 1008,9 hPa 0,0 l/m 4,8 km/h (1 Bft) 0 min 2 min 9,6 km/h (2 Bft)
15.05.2012 14:40 18,8 C 9,5 C 0,6 UV-I 1,3 C 47 % 86 % 37 % 1008,9 hPa 0,0 l/m 4,0 km/h (1 Bft) 0 min 2 min 9,6 km/h (2 Bft)
15.05.2012 14:42 18,8 C 9,3 C 0,6 UV-I 1,4 C 47 % 86 % 40 % 1008,9 hPa 0,1 l/m 4,0 km/h (1 Bft) 0 min 2 min 8,8 km/h (2 Bft)
15.05.2012 14:44 18,8 C 9,3 C 0,5 UV-I 1,2 C 47 % 86 % 34 % 1008,9 hPa 0,1 l/m 2,8 km/h (1 Bft) 0 min 2 min 10,4 km/h (2 Bft)
15.05.2012 14:46 18,8 C 9,2 C 0,5 UV-I 1,1 C 47 % 86 % 31 % 1008,9 hPa 0,0 l/m 3,6 km/h (1 Bft) 0 min 0 min 12,0 km/h (2 Bft)
15.05.2012 14:48 18,7 C 9,2 C 0,5 UV-I 0,9 C 47 % 86 % 26 % 1008,9 hPa 0,0 l/m 4,0 km/h (1 Bft) 0 min 0 min 12,0 km/h (2 Bft)
15.05.2012 14:50 18,7 C 9,2 C 0,5 UV-I 0,8 C 47 % 87 % 23 % 1008,9 hPa 0,1 l/m 4,0 km/h (1 Bft) 0 min 0 min 12,0 km/h (2 Bft)
15.05.2012 14:52 18,7 C 9,2 C 0,5 UV-I 0,6 C 47 % 87 % 17 % 1008,9 hPa 0,0 l/m 4,4 km/h (1 Bft) 0 min 0 min 8,0 km/h (2 Bft)
15.05.2012 14:54 18,7 C 9,2 C 0,3 UV-I 0,6 C 47 % 87 % 17 % 1008,9 hPa 0,1 l/m 4,8 km/h (1 Bft) 0 min 2 min 6,0 km/h (2 Bft)
15.05.2012 14:56 18,7 C 9,1 C 0,3 UV-I 0,6 C 47 % 87 % 17 % 1008,9 hPa 0,1 l/m 4,0 km/h (1 Bft) 0 min 2 min 6,4 km/h (2 Bft)
15.05.2012 14:58 18,6 C 9,1 C 0,2 UV-I 0,5 C 47 % 86 % 14 % 1009,3 hPa 0,0 l/m 4,4 km/h (1 Bft) 0 min 2 min 8,0 km/h (2 Bft)
15.05.2012 15:00 18,6 C 9,0 C 0,2 UV-I 0,4 C 47 % 86 % 11 % 1009,3 hPa 0,0 l/m 4,8 km/h (1 Bft) 0 min 0 min 8,0 km/h (2 Bft)
15.05.2012 15:02 18,6 C 8,9 C 0,2 UV-I 0,3 C 47 % 86 % 9 % 1009,3 hPa 0,1 l/m 4,8 km/h (1 Bft) 0 min 0 min 5,2 km/h (1 Bft)
15.05.2012 15:04 18,5 C 8,9 C 0,1 UV-I 0,1 C 47 % 86 % 3 % 1009,3 hPa 0,0 l/m 4,8 km/h (1 Bft) 0 min 0 min 0,0 km/h (0 Bft)
15.05.2012 15:06 18,5 C 8,9 C 0,1 UV-I 0,1 C 47 % 86 % 3 % 1009,3 hPa 0,0 l/m 4,8 km/h (1 Bft) 0 min 0 min 6,8 km/h (2 Bft)
15.05.2012 15:08 18,5 C 8,8 C 0,1 UV-I 0,0 C 47 % 86 % 0 % 1009,3 hPa 0,2 l/m 4,8 km/h (1 Bft) 0 min 0 min 6,8 km/h (2 Bft)
15.05.2012 15:10 18,5 C 8,7 C 0,1 UV-I 0,1 C 47 % 86 % 3 % 1009,3 hPa 0,0 l/m 4,4 km/h (1 Bft) 0 min 0 min 4,4 km/h (1 Bft)
15.05.2012 15:12 18,4 C 8,7 C 0,1 UV-I 0,1 C 47 % 87 % 3 % 1009,3 hPa 0,0 l/m 3,2 km/h (1 Bft) 0 min 0 min 4,0 km/h (1 Bft)
15.05.2012 15:14 18,4 C 8,7 C 0,2 UV-I 0,1 C 47 % 87 % 3 % 1009,3 hPa 0,1 l/m 2,8 km/h (1 Bft) 0 min 0 min 0,0 km/h (0 Bft)
15.05.2012 15:16 18,4 C 8,7 C 0,2 UV-I 0,1 C 47 % 87 % 3 % 1009,3 hPa 0,0 l/m 2,8 km/h (1 Bft) 0 min 0 min 7,2 km/h (2 Bft)
15.05.2012 15:18 18,4 C 8,6 C 0,3 UV-I 0,4 C 47 % 87 % 11 % 1009,4 hPa 0,1 l/m 2,8 km/h (1 Bft) 0 min 0 min 7,2 km/h (2 Bft)
15.05.2012 15:20 18,4 C 8,7 C 0,3 UV-I 0,3 C 47 % 87 % 9 % 1009,4 hPa 0,1 l/m 2,4 km/h (1 Bft) 0 min 0 min 6,4 km/h (2 Bft)
15.05.2012 15:22 18,2 C 8,7 C 0,3 UV-I 0,5 C 47 % 87 % 14 % 1009,4 hPa 0,0 l/m 2,4 km/h (1 Bft) 0 min 0 min 6,0 km/h (2 Bft)
15.05.2012 15:24 18,3 C 8,7 C 0,5 UV-I 0,6 C 47 % 87 % 17 % 1009,4 hPa 0,1 l/m 3,2 km/h (1 Bft) 0 min 0 min 10,0 km/h (2 Bft)
15.05.2012 15:26 18,2 C 8,7 C 0,5 UV-I 0,7 C 47 % 87 % 20 % 1009,4 hPa 0,0 l/m 3,6 km/h (1 Bft) 0 min 0 min 10,0 km/h (2 Bft)
15.05.2012 15:28 18,3 C 8,6 C 0,6 UV-I 0,9 C 47 % 87 % 26 % 1009,4 hPa 0,0 l/m 4,0 km/h (1 Bft) 0 min 0 min 6,4 km/h (2 Bft)
15.05.2012 15:30 18,2 C 8,7 C 0,6 UV-I 0,9 C 47 % 87 % 26 % 1009,4 hPa 0,1 l/m 4,0 km/h (1 Bft) 0 min 0 min 8,4 km/h (2 Bft)
15.05.2012 15:32 18,2 C 8,7 C 0,6 UV-I 1,1 C 48 % 87 % 31 % 1009,4 hPa 0,0 l/m 4,8 km/h (1 Bft) 0 min 0 min 8,4 km/h (2 Bft)
15.05.2012 15:34 18,2 C 8,7 C 0,7 UV-I 1,1 C 48 % 87 % 31 % 1009,4 hPa 0,1 l/m 5,2 km/h (1 Bft) 0 min 0 min 6,8 km/h (2 Bft)
15.05.2012 15:36 18,2 C 8,7 C 0,7 UV-I 1,3 C 48 % 87 % 37 % 1009,4 hPa 0,0 l/m 5,2 km/h (1 Bft) 0 min 0 min 11,6 km/h (2 Bft)
15.05.2012 15:38 18,2 C 8,7 C 0,9 UV-I 1,3 C 48 % 87 % 37 % 1009,2 hPa 0,0 l/m 5,2 km/h (1 Bft) 0 min 0 min 11,6 km/h (2 Bft)
15.05.2012 15:40 18,1 C 8,7 C 0,9 UV-I 1,5 C 48 % 88 % 43 % 1009,2 hPa 0,1 l/m 5,6 km/h (1 Bft) 0 min 0 min 5,6 km/h (1 Bft)
15.05.2012 15:42 18,1 C 8,7 C 0,9 UV-I 1,7 C 48 % 88 % 49 % 1009,2 hPa 0,1 l/m 5,2 km/h (1 Bft) 0 min 0 min 8,4 km/h (2 Bft)
15.05.2012 15:44 18,1 C 8,8 C 0,9 UV-I 1,7 C 48 % 88 % 49 % 1009,2 hPa 0,0 l/m 4,8 km/h (1 Bft) 0 min 0 min 8,4 km/h (2 Bft)
15.05.2012 15:46 18,1 C 8,8 C 0,9 UV-I 1,9 C 48 % 88 % 54 % 1009,2 hPa 0,0 l/m 4,8 km/h (1 Bft) 0 min 0 min 7,6 km/h (2 Bft)
15.05.2012 15:48 18,1 C 8,9 C 1,0 UV-I 2,0 C 48 % 88 % 57 % 1009,2 hPa 0,1 l/m 4,8 km/h (1 Bft) 0 min 0 min 7,2 km/h (2 Bft)
15.05.2012 15:50 18,1 C 8,9 C 1,0 UV-I 2,1 C 48 % 88 % 60 % 1009,2 hPa 0,0 l/m 4,4 km/h (1 Bft) 0 min 0 min 4,0 km/h (1 Bft)
15.05.2012 15:52 18,1 C 9,1 C 1,0 UV-I 2,1 C 48 % 88 % 60 % 1009,2 hPa 0,1 l/m 4,4 km/h (1 Bft) 0 min 0 min 9,6 km/h (2 Bft)
15.05.2012 15:54 18,1 C 9,1 C 0,9 UV-I 2,3 C 48 % 88 % 66 % 1009,2 hPa 0,0 l/m 4,4 km/h (1 Bft) 0 min 0 min 9,6 km/h (2 Bft)
15.05.2012 15:56 18,1 C 9,2 C 0,9 UV-I 2,3 C 48 % 89 % 66 % 1009,2 hPa 0,0 l/m 4,4 km/h (1 Bft) 0 min 0 min 9,2 km/h (2 Bft)
15.05.2012 15:58 18,1 C 9,3 C 0,9 UV-I 2,2 C 48 % 89 % 63 % 1009,4 hPa 0,1 l/m 4,0 km/h (1 Bft) 0 min 0 min 9,2 km/h (2 Bft)
15.05.2012 16:00 18,1 C 9,2 C 0,9 UV-I 2,4 C 48 % 88 % 69 % 1009,4 hPa 0,1 l/m 4,4 km/h (1 Bft) 0 min 0 min 11,2 km/h (2 Bft)
15.05.2012 16:02 18,1 C 9,3 C 0,9 UV-I 2,3 C 48 % 88 % 66 % 1009,4 hPa 0,0 l/m 5,2 km/h (1 Bft) 0 min 0 min 11,2 km/h (2 Bft)
15.05.2012 16:04 18,1 C 9,3 C 0,8 UV-I 2,3 C 49 % 88 % 66 % 1009,4 hPa 0,0 l/m 5,2 km/h (1 Bft) 0 min 0 min 0,0 km/h (0 Bft)
15.05.2012 16:06 18,1 C 9,5 C 0,8 UV-I 2,2 C 49 % 88 % 63 % 1009,4 hPa 0,0 l/m 5,6 km/h (1 Bft) 0 min 0 min 9,2 km/h (2 Bft)
15.05.2012 16:08 18,1 C 9,4 C 0,8 UV-I 2,4 C 48 % 87 % 69 % 1009,4 hPa 0,0 l/m 4,8 km/h (1 Bft) 0 min 0 min 9,2 km/h (2 Bft)
15.05.2012 16:10 18,1 C 9,5 C 0,8 UV-I 2,4 C 49 % 87 % 69 % 1009,4 hPa 0,0 l/m 5,2 km/h (1 Bft) 0 min 0 min 19,3 km/h (3 Bft)
15.05.2012 16:12 18,1 C 9,5 C 0,8 UV-I 2,5 C 49 % 86 % 71 % 1009,4 hPa 0,0 l/m 5,2 km/h (1 Bft) 0 min 0 min 19,3 km/h (3 Bft)
15.05.2012 16:14 18,1 C 9,5 C 0,8 UV-I 2,4 C 49 % 86 % 69 % 1009,4 hPa 0,0 l/m 6,0 km/h (2 Bft) 0 min 0 min 16,5 km/h (3 Bft)
15.05.2012 16:16 18,1 C 9,5 C 0,8 UV-I 2,3 C 48 % 86 % 66 % 1009,4 hPa 0,0 l/m 6,8 km/h (2 Bft) 0 min 0 min 16,5 km/h (3 Bft)
15.05.2012 16:18 18,1 C 9,4 C 0,9 UV-I 2,4 C 48 % 85 % 69 % 1009,6 hPa 0,0 l/m 7,2 km/h (2 Bft) 0 min 0 min 7,6 km/h (2 Bft)
15.05.2012 16:20 18,1 C 9,4 C 0,9 UV-I 2,3 C 48 % 85 % 66 % 1009,6 hPa 0,0 l/m 8,4 km/h (2 Bft) 0 min 0 min 14,5 km/h (3 Bft)
15.05.2012 16:22 18,1 C 9,5 C 0,9 UV-I 2,2 C 48 % 85 % 63 % 1009,6 hPa 0,0 l/m 8,0 km/h (2 Bft) 0 min 0 min 14,5 km/h (3 Bft)
15.05.2012 16:24 18,1 C 9,5 C 0,8 UV-I 2,1 C 48 % 85 % 60 % 1009,6 hPa 0,0 l/m 8,0 km/h (2 Bft) 0 min 0 min 8,0 km/h (2 Bft)
15.05.2012 16:26 18,1 C 9,5 C 0,8 UV-I 2,1 C 48 % 85 % 60 % 1009,6 hPa 0,0 l/m 6,0 km/h (2 Bft) 0 min 0 min 8,0 km/h (2 Bft)
15.05.2012 16:28 18,1 C 9,5 C 0,8 UV-I 2,1 C 48 % 85 % 60 % 1009,6 hPa 0,0 l/m 6,0 km/h (2 Bft) 0 min 0 min 6,8 km/h (2 Bft)
15.05.2012 16:30 18,2 C 9,5 C 0,8 UV-I 2,1 C 48 % 85 % 60 % 1009,6 hPa 0,0 l/m 5,6 km/h (1 Bft) 0 min 0 min 10,8 km/h (2 Bft)
15.05.2012 16:32 18,1 C 9,5 C 0,8 UV-I 2,1 C 48 % 85 % 60 % 1009,6 hPa 0,0 l/m 5,6 km/h (1 Bft) 0 min 0 min 10,8 km/h (2 Bft)
15.05.2012 16:34 18,2 C 9,6 C 0,5 UV-I 1,8 C 48 % 84 % 51 % 1009,6 hPa 0,0 l/m 6,0 km/h (2 Bft) 0 min 0 min 8,4 km/h (2 Bft)
15.05.2012 16:36 18,2 C 9,5 C 0,5 UV-I 1,7 C 48 % 85 % 49 % 1009,6 hPa 0,0 l/m 5,6 km/h (1 Bft) 0 min 0 min 6,8 km/h (2 Bft)
15.05.2012 16:38 18,2 C 9,6 C 0,1 UV-I 1,5 C 48 % 85 % 43 % 1009,9 hPa 0,0 l/m 5,2 km/h (1 Bft) 0 min 0 min 6,8 km/h (2 Bft)
15.05.2012 16:40 18,2 C 9,6 C 0,1 UV-I 1,2 C 48 % 85 % 34 % 1009,9 hPa 0,0 l/m 4,8 km/h (1 Bft) 0 min 0 min 7,6 km/h (2 Bft)
15.05.2012 16:42 18,1 C 9,5 C 0,1 UV-I 1,1 C 48 % 85 % 31 % 1009,9 hPa 0,0 l/m 5,2 km/h (1 Bft) 0 min 2 min 10,8 km/h (2 Bft)
15.05.2012 16:44 18,1 C 9,4 C 0,1 UV-I 0,9 C 48 % 84 % 26 % 1009,9 hPa 0,0 l/m 5,2 km/h (1 Bft) 0 min 2 min 10,8 km/h (2 Bft)
15.05.2012 16:46 18,2 C 9,3 C 0,1 UV-I 0,6 C 48 % 84 % 17 % 1009,9 hPa 0,0 l/m 7,6 km/h (2 Bft) 0 min 2 min 23,7 km/h (4 Bft)
15.05.2012 16:48 18,1 C 9,1 C 0,7 UV-I 0,5 C 48 % 84 % 14 % 1009,9 hPa 0,0 l/m 9,6 km/h (2 Bft) 0 min 0 min 23,7 km/h (4 Bft)
15.05.2012 16:50 18,2 C 9,1 C 0,7 UV-I 0,5 C 48 % 85 % 14 % 1009,9 hPa 0,0 l/m 9,2 km/h (2 Bft) 0 min 0 min 16,1 km/h (3 Bft)
15.05.2012 16:52 18,2 C 9,1 C 0,7 UV-I 0,8 C 49 % 85 % 23 % 1009,9 hPa 0,0 l/m 11,6 km/h (2 Bft) 0 min 0 min 14,9 km/h (3 Bft)
15.05.2012 16:54 18,3 C 9,2 C 2,6 UV-I 1,3 C 49 % 85 % 37 % 1009,9 hPa 0,0 l/m 10,8 km/h (2 Bft) 0 min 0 min 14,9 km/h (3 Bft)
15.05.2012 16:56 18,3 C 9,3 C 2,6 UV-I 1,9 C 49 % 85 % 54 % 1009,9 hPa 0,0 l/m 10,8 km/h (2 Bft) 0 min 0 min 14,5 km/h (3 Bft)
15.05.2012 16:58 18,4 C 9,5 C 3,1 UV-I 2,3 C 49 % 86 % 66 % 1008,9 hPa 0,0 l/m 9,6 km/h (2 Bft) 0 min 0 min 14,5 km/h (3 Bft)
15.05.2012 17:00 18,5 C 9,9 C 3,1 UV-I 2,9 C 49 % 85 % 83 % 1008,9 hPa 0,0 l/m 8,8 km/h (2 Bft) 2 min 0 min 12,0 km/h (2 Bft)
15.05.2012 17:02 18,6 C 10,0 C 3,1 UV-I 3,8 C 49 % 86 % 100 % 1008,9 hPa 0,0 l/m 8,0 km/h (2 Bft) 2 min 0 min 12,0 km/h (2 Bft)
15.05.2012 17:04 18,6 C 10,3 C 2,5 UV-I 4,2 C 49 % 85 % 100 % 1008,9 hPa 0,0 l/m 7,2 km/h (2 Bft) 2 min 0 min 8,8 km/h (2 Bft)
15.05.2012 17:06 18,7 C 10,4 C 2,5 UV-I 4,2 C 49 % 85 % 100 % 1008,9 hPa 0,0 l/m 6,8 km/h (2 Bft) 2 min 0 min 8,8 km/h (2 Bft)
15.05.2012 17:08 18,7 C 10,4 C 2,2 UV-I 4,5 C 49 % 83 % 100 % 1008,9 hPa 0,0 l/m 6,4 km/h (2 Bft) 2 min 0 min 8,8 km/h (2 Bft)
15.05.2012 17:10 18,8 C 10,5 C 2,2 UV-I 4,8 C 49 % 82 % 100 % 1008,9 hPa 0,0 l/m 6,0 km/h (2 Bft) 2 min 0 min 9,6 km/h (2 Bft)
15.05.2012 17:12 18,8 C 10,6 C 2,2 UV-I 4,9 C 48 % 82 % 100 % 1008,9 hPa 0,0 l/m 6,4 km/h (2 Bft) 2 min 0 min 12,8 km/h (3 Bft)
15.05.2012 17:14 18,8 C 10,5 C 2,2 UV-I 4,8 C 48 % 82 % 100 % 1008,9 hPa 0,0 l/m 6,8 km/h (2 Bft) 2 min 0 min 17,7 km/h (3 Bft)
15.05.2012 17:16 18,9 C 10,5 C 2,2 UV-I 4,5 C 48 % 81 % 100 % 1008,9 hPa 0,0 l/m 7,2 km/h (2 Bft) 2 min 0 min 17,7 km/h (3 Bft)
15.05.2012 17:18 18,9 C 10,3 C 1,2 UV-I 4,1 C 47 % 81 % 100 % 1009,1 hPa 0,0 l/m 7,6 km/h (2 Bft) 2 min 0 min 24,1 km/h (4 Bft)
15.05.2012 17:20 18,9 C 10,3 C 1,2 UV-I 3,5 C 47 % 81 % 100 % 1009,1 hPa 0,0 l/m 6,4 km/h (2 Bft) 2 min 0 min 24,1 km/h (4 Bft)
15.05.2012 17:22 18,9 C 10,1 C 1,2 UV-I 3,4 C 47 % 81 % 97 % 1009,1 hPa 0,0 l/m 6,8 km/h (2 Bft) 2 min 2 min 16,5 km/h (3 Bft)
15.05.2012 17:24 19,0 C 10,0 C 0,8 UV-I 2,9 C 47 % 81 % 83 % 1009,1 hPa 0,0 l/m 6,8 km/h (2 Bft) 2 min 0 min 16,5 km/h (3 Bft)
15.05.2012 17:26 19,0 C 9,9 C 0,8 UV-I 2,5 C 47 % 81 % 71 % 1009,1 hPa 0,0 l/m 5,6 km/h (1 Bft) 0 min 2 min 6,8 km/h (2 Bft)
15.05.2012 17:28 19,0 C 9,9 C 0,3 UV-I 2,1 C 47 % 81 % 60 % 1009,1 hPa 0,0 l/m 6,0 km/h (2 Bft) 0 min 2 min 16,5 km/h (3 Bft)
15.05.2012 17:30 19,0 C 9,6 C 0,3 UV-I 1,9 C 46 % 81 % 54 % 1009,1 hPa 0,0 l/m 6,4 km/h (2 Bft) 0 min 0 min 16,5 km/h (3 Bft)
15.05.2012 17:32 19,0 C 9,6 C 0,3 UV-I 1,5 C 46 % 82 % 43 % 1009,1 hPa 0,0 l/m 6,4 km/h (2 Bft) 0 min 0 min 15,3 km/h (3 Bft)
15.05.2012 17:34 19,0 C 9,5 C 0,2 UV-I 1,3 C 46 % 82 % 37 % 1009,1 hPa 0,0 l/m 5,6 km/h (1 Bft) 0 min 2 min 8,0 km/h (2 Bft)
15.05.2012 17:36 19,0 C 9,5 C 0,2 UV-I 1,0 C 46 % 82 % 29 % 1009,1 hPa 0,0 l/m 5,6 km/h (1 Bft) 0 min 0 min 8,0 km/h (2 Bft)
15.05.2012 17:38 19,0 C 9,5 C 0,2 UV-I 1,0 C 46 % 83 % 29 % 1010,0 hPa 0,0 l/m 6,0 km/h (2 Bft) 0 min 0 min 6,4 km/h (2 Bft)
15.05.2012 17:40 19,0 C 9,5 C 0,2 UV-I 0,8 C 46 % 84 % 23 % 1010,0 hPa 0,0 l/m 4,8 km/h (1 Bft) 0 min 0 min 6,4 km/h (2 Bft)
15.05.2012 17:42 19,0 C 9,5 C 0,2 UV-I 0,7 C 46 % 84 % 20 % 1010,0 hPa 0,0 l/m 3,6 km/h (1 Bft) 0 min 2 min 6,0 km/h (2 Bft)
15.05.2012 17:44 19,0 C 9,5 C 0,1 UV-I 0,5 C 46 % 84 % 14 % 1010,0 hPa 0,0 l/m 3,2 km/h (1 Bft) 0 min 0 min 6,0 km/h (2 Bft)
15.05.2012 17:46 19,0 C 9,4 C 0,1 UV-I 0,6 C 46 % 84 % 17 % 1010,0 hPa 0,0 l/m 3,6 km/h (1 Bft) 0 min 0 min 6,0 km/h (2 Bft)
15.05.2012 17:48 19,0 C 9,2 C 0,1 UV-I 0,6 C 46 % 83 % 17 % 1010,0 hPa 0,0 l/m 4,4 km/h (1 Bft) 0 min 0 min 8,4 km/h (2 Bft)
15.05.2012 17:50 19,0 C 9,2 C 0,1 UV-I 0,6 C 46 % 84 % 17 % 1010,0 hPa 0,0 l/m 4,4 km/h (1 Bft) 0 min 0 min 8,4 km/h (2 Bft)
15.05.2012 17:52 18,9 C 9,3 C 0,1 UV-I 0,4 C 46 % 84 % 11 % 1010,0 hPa 0,0 l/m 4,4 km/h (1 Bft) 0 min 0 min 7,2 km/h (2 Bft)
15.05.2012 17:54 18,9 C 9,3 C 0,1 UV-I 0,4 C 46 % 84 % 11 % 1010,0 hPa 0,0 l/m 5,2 km/h (1 Bft) 0 min 0 min 0,0 km/h (0 Bft)
15.05.2012 17:56 18,9 C 9,3 C 0,1 UV-I 0,5 C 46 % 84 % 14 % 1010,0 hPa 0,0 l/m 4,4 km/h (1 Bft) 0 min 0 min 0,0 km/h (0 Bft)
15.05.2012 17:58 18,9 C 9,3 C 0,2 UV-I 0,6 C 46 % 85 % 17 % 1010,1 hPa 0,0 l/m 4,0 km/h (1 Bft) 0 min 0 min 4,4 km/h (1 Bft)
15.05.2012 18:00 18,8 C 9,2 C 0,2 UV-I 0,8 C 46 % 85 % 23 % 1010,1 hPa 0,0 l/m 3,6 km/h (1 Bft) 0 min 0 min 4,4 km/h (1 Bft)
15.05.2012 18:02 18,8 C 9,3 C 0,2 UV-I 1,0 C 46 % 85 % 29 % 1010,1 hPa 0,0 l/m 3,2 km/h (1 Bft) 0 min 0 min 6,0 km/h (2 Bft)
15.05.2012 18:04 18,8 C 9,4 C 0,4 UV-I 1,1 C 46 % 85 % 31 % 1010,1 hPa 0,0 l/m 3,2 km/h (1 Bft) 0 min 0 min 6,0 km/h (2 Bft)
15.05.2012 18:06 18,8 C 9,5 C 0,4 UV-I 1,2 C 46 % 84 % 34 % 1010,1 hPa 0,0 l/m 4,0 km/h (1 Bft) 0 min 0 min 8,0 km/h (2 Bft)
15.05.2012 18:08 18,8 C 9,5 C 0,5 UV-I 1,3 C 46 % 84 % 37 % 1010,1 hPa 0,0 l/m 4,0 km/h (1 Bft) 0 min 0 min 8,0 km/h (2 Bft)
15.05.2012 18:10 18,8 C 9,4 C 0,5 UV-I 1,6 C 46 % 84 % 46 % 1010,1 hPa 0,0 l/m 4,0 km/h (1 Bft) 0 min 0 min 5,2 km/h (1 Bft)
15.05.2012 18:12 18,8 C 9,5 C 0,5 UV-I 1,6 C 46 % 84 % 46 % 1010,1 hPa 0,0 l/m 4,8 km/h (1 Bft) 0 min 0 min 19,7 km/h (3 Bft)
15.05.2012 18:14 18,8 C 9,6 C 0,5 UV-I 1,5 C 46 % 83 % 43 % 1010,1 hPa 0,0 l/m 6,0 km/h (2 Bft) 0 min 0 min 19,7 km/h (3 Bft)
15.05.2012 18:16 18,8 C 9,6 C 0,5 UV-I 1,6 C 46 % 83 % 46 % 1010,1 hPa 0,0 l/m 4,8 km/h (1 Bft) 0 min 0 min 11,6 km/h (2 Bft)
15.05.2012 18:18 18,8 C 9,6 C 0,5 UV-I 1,6 C 46 % 83 % 46 % 1010,1 hPa 0,0 l/m 5,2 km/h (1 Bft) 0 min 0 min 15,7 km/h (3 Bft)
15.05.2012 18:20 18,8 C 9,7 C 0,5 UV-I 1,4 C 46 % 83 % 40 % 1010,1 hPa 0,0 l/m 5,6 km/h (1 Bft) 0 min 0 min 15,7 km/h (3 Bft)
15.05.2012 18:22 18,8 C 9,7 C 0,5 UV-I 1,5 C 46 % 83 % 43 % 1010,1 hPa 0,0 l/m 5,2 km/h (1 Bft) 0 min 0 min 6,0 km/h (2 Bft)
15.05.2012 18:24 18,8 C 9,7 C 0,5 UV-I 1,5 C 46 % 83 % 43 % 1010,1 hPa 0,0 l/m 4,8 km/h (1 Bft) 0 min 0 min 10,8 km/h (2 Bft)
15.05.2012 18:26 18,8 C 9,6 C 0,5 UV-I 1,7 C 46 % 82 % 49 % 1010,1 hPa 0,0 l/m 5,6 km/h (1 Bft) 0 min 0 min 17,7 km/h (3 Bft)
15.05.2012 18:28 18,7 C 9,6 C 0,6 UV-I 1,6 C 46 % 82 % 46 % 1010,1 hPa 0,0 l/m 5,6 km/h (1 Bft) 0 min 0 min 17,7 km/h (3 Bft)
15.05.2012 18:30 18,8 C 9,6 C 0,6 UV-I 1,5 C 46 % 82 % 43 % 1010,1 hPa 0,0 l/m 5,2 km/h (1 Bft) 0 min 0 min 7,2 km/h (2 Bft)
15.05.2012 18:32 18,7 C 9,7 C 0,6 UV-I 1,4 C 46 % 82 % 40 % 1010,1 hPa 0,0 l/m 6,4 km/h (2 Bft) 0 min 0 min 11,2 km/h (2 Bft)
15.05.2012 18:34 18,7 C 9,7 C 0,6 UV-I 1,3 C 46 % 82 % 37 % 1010,1 hPa 0,0 l/m 6,4 km/h (2 Bft) 0 min 0 min 11,2 km/h (2 Bft)
15.05.2012 18:36 18,7 C 9,7 C 0,6 UV-I 1,2 C 46 % 82 % 34 % 1010,1 hPa 0,0 l/m 6,4 km/h (2 Bft) 0 min 0 min 16,5 km/h (3 Bft)
15.05.2012 18:38 18,7 C 9,6 C 0,5 UV-I 1,3 C 46 % 82 % 37 % 1010,0 hPa 0,0 l/m 5,6 km/h (1 Bft) 0 min 0 min 16,5 km/h (3 Bft)
15.05.2012 18:40 18,7 C 9,7 C 0,5 UV-I 1,1 C 46 % 82 % 31 % 1010,0 hPa 0,0 l/m 6,0 km/h (2 Bft) 0 min 0 min 5,2 km/h (1 Bft)
15.05.2012 18:42 18,7 C 9,7 C 0,5 UV-I 1,0 C 46 % 82 % 29 % 1010,0 hPa 0,0 l/m 4,8 km/h (1 Bft) 0 min 0 min 7,2 km/h (2 Bft)
15.05.2012 18:44 18,7 C 9,7 C 0,4 UV-I 0,9 C 46 % 82 % 26 % 1010,0 hPa 0,0 l/m 4,4 km/h (1 Bft) 0 min 0 min 7,2 km/h (2 Bft)
15.05.2012 18:46 18,6 C 9,7 C 0,4 UV-I 0,8 C 46 % 82 % 23 % 1010,0 hPa 0,0 l/m 6,0 km/h (2 Bft) 0 min 0 min 13,3 km/h (3 Bft)
15.05.2012 18:48 18,6 C 9,7 C 0,4 UV-I 0,8 C 46 % 82 % 23 % 1010,0 hPa 0,0 l/m 5,2 km/h (1 Bft) 0 min 0 min 13,3 km/h (3 Bft)
15.05.2012 18:50 18,6 C 9,7 C 0,4 UV-I 0,8 C 46 % 82 % 23 % 1010,0 hPa 0,0 l/m 5,6 km/h (1 Bft) 0 min 0 min 7,6 km/h (2 Bft)
15.05.2012 18:52 18,6 C 9,8 C 0,4 UV-I 0,7 C 46 % 82 % 20 % 1010,0 hPa 0,0 l/m 6,8 km/h (2 Bft) 0 min 0 min 7,6 km/h (2 Bft)
15.05.2012 18:54 18,6 C 9,8 C 0,4 UV-I 0,7 C 46 % 82 % 20 % 1010,0 hPa 0,0 l/m 6,8 km/h (2 Bft) 0 min 0 min 8,8 km/h (2 Bft)
15.05.2012 18:56 18,6 C 9,8 C 0,4 UV-I 0,7 C 46 % 82 % 20 % 1010,0 hPa 0,0 l/m 6,0 km/h (2 Bft) 0 min 0 min 8,8 km/h (2 Bft)
15.05.2012 18:58 18,6 C 9,9 C 0,4 UV-I 0,7 C 46 % 82 % 20 % 1010,4 hPa 0,0 l/m 5,6 km/h (1 Bft) 0 min 0 min 9,2 km/h (2 Bft)
15.05.2012 19:00 18,6 C 9,9 C 0,4 UV-I 0,7 C 47 % 82 % 20 % 1010,4 hPa 0,0 l/m 5,6 km/h (1 Bft) 0 min 0 min 9,2 km/h (2 Bft)
15.05.2012 19:02 18,6 C 10,0 C 0,4 UV-I 0,6 C 47 % 82 % 17 % 1010,4 hPa 0,0 l/m 4,8 km/h (1 Bft) 0 min 0 min 5,2 km/h (1 Bft)
15.05.2012 19:04 18,6 C 10,0 C 0,3 UV-I 0,6 C 46 % 82 % 17 % 1010,4 hPa 0,0 l/m 5,6 km/h (1 Bft) 0 min 0 min 4,4 km/h (1 Bft)
15.05.2012 19:06 18,6 C 10,0 C 0,3 UV-I 0,6 C 46 % 82 % 17 % 1010,4 hPa 0,0 l/m 5,6 km/h (1 Bft) 0 min 0 min 4,4 km/h (1 Bft)
15.05.2012 19:08 18,6 C 10,0 C 0,2 UV-I 0,7 C 47 % 82 % 20 % 1010,4 hPa 0,0 l/m 6,0 km/h (2 Bft) 0 min 0 min 13,3 km/h (3 Bft)
15.05.2012 19:10 18,5 C 10,1 C 0,2 UV-I 0,7 C 47 % 83 % 20 % 1010,4 hPa 0,0 l/m 5,6 km/h (1 Bft) 0 min 0 min 13,3 km/h (3 Bft)
15.05.2012 19:12 18,5 C 10,1 C 0,2 UV-I 0,8 C 47 % 82 % 23 % 1010,4 hPa 0,0 l/m 4,8 km/h (1 Bft) 0 min 0 min 13,3 km/h (3 Bft)
15.05.2012 19:14 18,5 C 10,1 C 0,1 UV-I 1,0 C 47 % 83 % 29 % 1010,4 hPa 0,0 l/m 3,6 km/h (1 Bft) 0 min 0 min 9,2 km/h (2 Bft)
15.05.2012 19:16 18,5 C 10,1 C 0,1 UV-I 1,1 C 47 % 82 % 31 % 1010,4 hPa 0,0 l/m 4,0 km/h (1 Bft) 0 min 0 min 10,0 km/h (2 Bft)
15.05.2012 19:18 18,5 C 10,2 C 0,2 UV-I 1,0 C 47 % 82 % 29 % 1010,3 hPa 0,0 l/m 4,4 km/h (1 Bft) 0 min 0 min 10,0 km/h (2 Bft)
15.05.2012 19:20 18,5 C 10,2 C 0,2 UV-I 1,0 C 47 % 82 % 29 % 1010,3 hPa 0,0 l/m 4,0 km/h (1 Bft) 0 min 0 min 7,6 km/h (2 Bft)
15.05.2012 19:22 18,5 C 10,1 C 0,2 UV-I 1,0 C 47 % 81 % 29 % 1010,3 hPa 0,0 l/m 4,4 km/h (1 Bft) 0 min 0 min 6,4 km/h (2 Bft)
15.05.2012 19:24 18,5 C 10,1 C 0,1 UV-I 0,9 C 47 % 81 % 26 % 1010,3 hPa 0,0 l/m 4,8 km/h (1 Bft) 0 min 0 min 8,0 km/h (2 Bft)
15.05.2012 19:26 18,5 C 10,0 C 0,1 UV-I 0,9 C 47 % 81 % 26 % 1010,3 hPa 0,0 l/m 4,8 km/h (1 Bft) 0 min 0 min 8,4 km/h (2 Bft)
15.05.2012 19:28 18,5 C 10,0 C 0,1 UV-I 0,7 C 47 % 81 % 20 % 1010,3 hPa 0,0 l/m 4,8 km/h (1 Bft) 0 min 0 min 8,4 km/h (2 Bft)
15.05.2012 19:30 18,5 C 9,9 C 0,1 UV-I 0,7 C 47 % 81 % 20 % 1010,3 hPa 0,0 l/m 4,4 km/h (1 Bft) 0 min 0 min 8,0 km/h (2 Bft)
15.05.2012 19:32 18,5 C 9,9 C 0,1 UV-I 0,6 C 47 % 81 % 17 % 1010,3 hPa 0,0 l/m 4,0 km/h (1 Bft) 0 min 0 min 4,0 km/h (1 Bft)
15.05.2012 19:34 18,4 C 9,9 C 0,1 UV-I 0,6 C 47 % 81 % 17 % 1010,3 hPa 0,0 l/m 4,0 km/h (1 Bft) 0 min 0 min 16,5 km/h (3 Bft)
15.05.2012 19:36 18,4 C 9,9 C 0,1 UV-I 0,5 C 47 % 81 % 14 % 1010,3 hPa 0,0 l/m 2,8 km/h (1 Bft) 0 min 0 min 16,5 km/h (3 Bft)
15.05.2012 19:38 18,4 C 9,9 C 0,0 UV-I 0,4 C 47 % 81 % 11 % 1010,9 hPa 0,0 l/m 3,2 km/h (1 Bft) 0 min 0 min 9,6 km/h (2 Bft)
15.05.2012 19:40 18,4 C 9,7 C 0,0 UV-I 0,6 C 47 % 81 % 17 % 1010,9 hPa 0,0 l/m 3,2 km/h (1 Bft) 0 min 0 min 9,6 km/h (2 Bft)
15.05.2012 19:42 18,4 C 9,6 C 0,0 UV-I 0,5 C 46 % 80 % 14 % 1010,9 hPa 0,0 l/m 4,4 km/h (1 Bft) 0 min 0 min 7,2 km/h (2 Bft)
15.05.2012 19:44 18,4 C 9,7 C 0,0 UV-I 0,3 C 46 % 80 % 9 % 1010,9 hPa 0,0 l/m 5,6 km/h (1 Bft) 0 min 0 min 12,4 km/h (3 Bft)
15.05.2012 19:46 18,4 C 9,5 C 0,0 UV-I 0,4 C 46 % 80 % 11 % 1010,9 hPa 0,0 l/m 5,6 km/h (1 Bft) 0 min 0 min 12,4 km/h (3 Bft)
15.05.2012 19:48 18,4 C 9,5 C 0,0 UV-I 0,3 C 46 % 80 % 9 % 1010,9 hPa 0,0 l/m 4,8 km/h (1 Bft) 0 min 0 min 7,6 km/h (2 Bft)
15.05.2012 19:50 18,4 C 9,5 C 0,0 UV-I 0,2 C 46 % 81 % 6 % 1010,9 hPa 0,0 l/m 4,8 km/h (1 Bft) 0 min 0 min 5,6 km/h (1 Bft)
15.05.2012 19:52 18,4 C 9,4 C 0,0 UV-I 0,2 C 46 % 81 % 6 % 1010,9 hPa 0,0 l/m 3,6 km/h (1 Bft) 0 min 0 min 4,0 km/h (1 Bft)
15.05.2012 19:54 18,2 C 9,5 C 0,0 UV-I 0,0 C 46 % 81 % 0 % 1010,9 hPa 0,0 l/m 3,6 km/h (1 Bft) 0 min 0 min 12,0 km/h (2 Bft)
15.05.2012 19:56 18,3 C 9,5 C 0,0 UV-I 0,0 C 46 % 81 % 0 % 1010,9 hPa 0,0 l/m 2,8 km/h (1 Bft) 0 min 0 min 12,0 km/h (2 Bft)
15.05.2012 19:58 18,3 C 9,3 C 0,0 UV-I 0,0 C 46 % 81 % 0 % 1011,2 hPa 0,0 l/m 2,8 km/h (1 Bft) 0 min 0 min 5,6 km/h (1 Bft)
15.05.2012 20:00 18,3 C 9,3 C 0,0 UV-I 0,0 C 46 % 81 % 0 % 1011,2 hPa 0,0 l/m 3,2 km/h (1 Bft) 0 min 0 min 16,1 km/h (3 Bft)
15.05.2012 20:02 18,3 C 9,2 C 0,0 UV-I 0,0 C 46 % 81 % 0 % 1011,2 hPa 0,0 l/m 3,6 km/h (1 Bft) 0 min 0 min 16,1 km/h (3 Bft)
15.05.2012 20:04 18,3 C 9,2 C 0,0 UV-I 0,0 C 46 % 81 % 0 % 1011,2 hPa 0,0 l/m 3,2 km/h (1 Bft) 0 min 0 min 0,0 km/h (0 Bft)
15.05.2012 20:06 18,2 C 9,2 C 0,0 UV-I 0,0 C 46 % 82 % 0 % 1011,2 hPa 0,0 l/m 3,6 km/h (1 Bft) 0 min 0 min 16,1 km/h (3 Bft)
15.05.2012 20:08 18,2 C 9,3 C 0,0 UV-I 0,0 C 46 % 82 % 0 % 1011,2 hPa 0,0 l/m 3,2 km/h (1 Bft) 0 min 0 min 16,1 km/h (3 Bft)
15.05.2012 20:10 18,2 C 9,2 C 0,0 UV-I 0,0 C 46 % 82 % 0 % 1011,2 hPa 0,0 l/m 3,2 km/h (1 Bft) 0 min 0 min 4,8 km/h (1 Bft)
15.05.2012 20:12 18,2 C 9,3 C 0,0 UV-I 0,0 C 46 % 82 % 0 % 1011,2 hPa 0,0 l/m 3,6 km/h (1 Bft) 0 min 0 min 14,5 km/h (3 Bft)
15.05.2012 20:14 18,2 C 9,2 C 0,0 UV-I 0,0 C 46 % 82 % 0 % 1011,2 hPa 0,0 l/m 4,0 km/h (1 Bft) 0 min 0 min 14,5 km/h (3 Bft)
15.05.2012 20:16 18,2 C 9,2 C 0,0 UV-I 0,0 C 46 % 82 % 0 % 1011,2 hPa 0,0 l/m 4,8 km/h (1 Bft) 0 min 0 min 8,0 km/h (2 Bft)
15.05.2012 20:18 18,1 C 9,1 C 0,0 UV-I 0,0 C 46 % 82 % 0 % 1011,4 hPa 0,0 l/m 4,8 km/h (1 Bft) 0 min 0 min 9,2 km/h (2 Bft)
15.05.2012 20:20 18,1 C 9,1 C 0,0 UV-I 0,0 C 46 % 81 % 0 % 1011,4 hPa 0,0 l/m 5,2 km/h (1 Bft) 0 min 0 min 9,2 km/h (2 Bft)
15.05.2012 20:22 18,1 C 9,1 C 0,0 UV-I 0,0 C 46 % 81 % 0 % 1011,4 hPa 0,0 l/m 5,6 km/h (1 Bft) 0 min 0 min 11,6 km/h (2 Bft)
15.05.2012 20:24 18,1 C 9,0 C 0,0 UV-I 0,0 C 46 % 81 % 0 % 1011,4 hPa 0,0 l/m 5,6 km/h (1 Bft) 0 min 0 min 11,6 km/h (2 Bft)
15.05.2012 20:26 18,1 C 9,1 C 0,0 UV-I 0,0 C 46 % 81 % 0 % 1011,4 hPa 0,0 l/m 5,6 km/h (1 Bft) 0 min 0 min 10,8 km/h (2 Bft)
15.05.2012 20:28 18,0 C 9,1 C 0,0 UV-I 0,0 C 46 % 82 % 0 % 1011,4 hPa 0,0 l/m 4,8 km/h (1 Bft) 0 min 0 min 10,8 km/h (2 Bft)
15.05.2012 20:30 18,0 C 9,1 C 0,0 UV-I 0,0 C 46 % 82 % 0 % 1011,4 hPa 0,0 l/m 4,0 km/h (1 Bft) 0 min 0 min 7,2 km/h (2 Bft)
15.05.2012 20:32 18,0 C 8,9 C 0,0 UV-I 0,0 C 46 % 81 % 0 % 1011,4 hPa 0,0 l/m 4,4 km/h (1 Bft) 0 min 0 min 4,4 km/h (1 Bft)
15.05.2012 20:34 18,0 C 8,9 C 0,0 UV-I 0,0 C 46 % 81 % 0 % 1011,4 hPa 0,0 l/m 4,0 km/h (1 Bft) 0 min 0 min 4,4 km/h (1 Bft)
15.05.2012 20:36 18,0 C 8,9 C 0,0 UV-I 0,0 C 46 % 81 % 0 % 1011,4 hPa 0,0 l/m 3,6 km/h (1 Bft) 0 min 0 min 13,7 km/h (3 Bft)
15.05.2012 20:38 18,0 C 8,9 C 0,0 UV-I 0,0 C 46 % 81 % 0 % 1011,9 hPa 0,0 l/m 3,6 km/h (1 Bft) 0 min 0 min 13,7 km/h (3 Bft)
15.05.2012 20:40 18,0 C 8,9 C 0,0 UV-I 0,0 C 46 % 81 % 0 % 1011,9 hPa 0,0 l/m 4,0 km/h (1 Bft) 0 min 0 min 6,0 km/h (2 Bft)
15.05.2012 20:42 18,0 C 8,9 C 0,0 UV-I 0,0 C 46 % 81 % 0 % 1011,9 hPa 0,0 l/m 4,4 km/h (1 Bft) 0 min 0 min 6,0 km/h (2 Bft)
15.05.2012 20:44 18,0 C 8,9 C 0,0 UV-I 0,0 C 46 % 81 % 0 % 1011,9 hPa 0,0 l/m 3,6 km/h (1 Bft) 0 min 0 min 4,4 km/h (1 Bft)
15.05.2012 20:46 17,9 C 8,9 C 0,0 UV-I 0,0 C 46 % 82 % 0 % 1011,9 hPa 0,0 l/m 3,2 km/h (1 Bft) 0 min 0 min 0,0 km/h (0 Bft)
15.05.2012 20:48 17,9 C 8,8 C 0,0 UV-I 0,0 C 46 % 82 % 0 % 1011,9 hPa 0,0 l/m 2,4 km/h (1 Bft) 0 min 0 min 0,0 km/h (0 Bft)
15.05.2012 20:50 17,9 C 8,8 C 0,0 UV-I 0,0 C 47 % 82 % 0 % 1011,9 hPa 0,0 l/m 2,8 km/h (1 Bft) 0 min 0 min 6,8 km/h (2 Bft)
15.05.2012 20:52 17,9 C 8,8 C 0,0 UV-I 0,0 C 46 % 82 % 0 % 1011,9 hPa 0,0 l/m 2,4 km/h (1 Bft) 0 min 0 min 7,6 km/h (2 Bft)
15.05.2012 20:54 17,9 C 8,9 C 0,0 UV-I 0,0 C 46 % 82 % 0 % 1011,9 hPa 0,0 l/m 2,4 km/h (1 Bft) 0 min 0 min 7,6 km/h (2 Bft)
15.05.2012 20:56 17,9 C 8,8 C 0,0 UV-I 0,0 C 47 % 82 % 0 % 1011,9 hPa 0,0 l/m 2,4 km/h (1 Bft) 0 min 0 min 4,0 km/h (1 Bft)
15.05.2012 20:58 17,9 C 8,8 C 0,0 UV-I 0,0 C 46 % 82 % 0 % 1012,1 hPa 0,0 l/m 2,0 km/h (1 Bft) 0 min 0 min 0,0 km/h (0 Bft)
15.05.2012 21:00 17,8 C 8,8 C 0,0 UV-I 0,0 C 47 % 82 % 0 % 1012,1 hPa 0,0 l/m 2,4 km/h (1 Bft) 0 min 0 min 8,0 km/h (2 Bft)
15.05.2012 21:02 17,8 C 8,7 C 0,0 UV-I 0,0 C 46 % 82 % 0 % 1012,1 hPa 0,0 l/m 2,8 km/h (1 Bft) 0 min 0 min 8,0 km/h (2 Bft)
15.05.2012 21:04 17,8 C 8,7 C 0,0 UV-I 0,0 C 47 % 82 % 0 % 1012,1 hPa 0,0 l/m 2,8 km/h (1 Bft) 0 min 0 min 0,0 km/h (0 Bft)
15.05.2012 21:06 17,8 C 8,7 C 0,0 UV-I 0,0 C 47 % 82 % 0 % 1012,1 hPa 0,0 l/m 3,2 km/h (1 Bft) 0 min 0 min 8,4 km/h (2 Bft)
15.05.2012 21:08 17,8 C 8,7 C 0,0 UV-I 0,0 C 47 % 82 % 0 % 1012,1 hPa 0,0 l/m 3,2 km/h (1 Bft) 0 min 0 min 8,4 km/h (2 Bft)
15.05.2012 21:10 17,8 C 8,7 C 0,0 UV-I 0,0 C 47 % 82 % 0 % 1012,1 hPa 0,0 l/m 2,4 km/h (1 Bft) 0 min 0 min 0,0 km/h (0 Bft)
15.05.2012 21:12 17,8 C 8,7 C 0,0 UV-I 0,0 C 47 % 83 % 0 % 1012,1 hPa 0,0 l/m 1,2 km/h (1 Bft) 0 min 0 min 0,0 km/h (0 Bft)
15.05.2012 21:14 17,8 C 8,6 C 0,0 UV-I 0,0 C 47 % 83 % 0 % 1012,1 hPa 0,0 l/m 0,8 km/h (0 Bft) 0 min 0 min 4,8 km/h (1 Bft)
15.05.2012 21:16 17,8 C 8,6 C 0,0 UV-I 0,0 C 47 % 83 % 0 % 1012,1 hPa 0,0 l/m 0,8 km/h (0 Bft) 0 min 0 min 4,8 km/h (1 Bft)
15.05.2012 21:18 17,7 C 8,7 C 0,0 UV-I 0,0 C 47 % 83 % 0 % 1012,3 hPa 0,0 l/m 0,4 km/h (0 Bft) 0 min 0 min 0,0 km/h (0 Bft)
15.05.2012 21:20 17,7 C 8,7 C 0,0 UV-I 0,0 C 47 % 83 % 0 % 1012,3 hPa 0,0 l/m 0,4 km/h (0 Bft) 0 min 0 min 5,6 km/h (1 Bft)
15.05.2012 21:22 17,7 C 8,7 C 0,0 UV-I 0,0 C 47 % 83 % 0 % 1012,3 hPa 0,0 l/m 0,4 km/h (0 Bft) 0 min 0 min 5,6 km/h (1 Bft)
15.05.2012 21:24 17,7 C 8,7 C 0,0 UV-I 0,0 C 47 % 84 % 0 % 1012,3 hPa 0,0 l/m 0,4 km/h (0 Bft) 0 min 0 min 0,0 km/h (0 Bft)
15.05.2012 21:26 17,7 C 8,7 C 0,0 UV-I 0,0 C 47 % 85 % 0 % 1012,3 hPa 0,0 l/m 1,2 km/h (1 Bft) 0 min 0 min 6,0 km/h (2 Bft)
15.05.2012 21:28 17,6 C 8,7 C 0,0 UV-I 0,0 C 47 % 85 % 0 % 1012,3 hPa 0,0 l/m 1,6 km/h (1 Bft) 0 min 0 min 9,6 km/h (2 Bft)
15.05.2012 21:30 17,6 C 8,7 C 0,0 UV-I 0,0 C 47 % 85 % 0 % 1012,3 hPa 0,0 l/m 2,0 km/h (1 Bft) 0 min 0 min 9,6 km/h (2 Bft)
15.05.2012 21:32 17,6 C 8,7 C 0,0 UV-I 0,0 C 47 % 85 % 0 % 1012,3 hPa 0,0 l/m 2,0 km/h (1 Bft) 0 min 0 min 0,0 km/h (0 Bft)
15.05.2012 21:34 17,6 C 8,6 C 0,0 UV-I 0,0 C 48 % 85 % 0 % 1012,3 hPa 0,0 l/m 2,0 km/h (1 Bft) 0 min 0 min 0,0 km/h (0 Bft)
15.05.2012 21:36 17,6 C 8,5 C 0,0 UV-I 0,0 C 48 % 85 % 0 % 1012,3 hPa 0,0 l/m 2,0 km/h (1 Bft) 0 min 0 min 4,0 km/h (1 Bft)
15.05.2012 21:38 17,6 C 8,5 C 0,0 UV-I 0,0 C 48 % 85 % 0 % 1012,4 hPa 0,0 l/m 1,6 km/h (1 Bft) 0 min 0 min 4,4 km/h (1 Bft)
15.05.2012 21:40 17,6 C 8,5 C 0,0 UV-I 0,0 C 48 % 85 % 0 % 1012,4 hPa 0,0 l/m 0,8 km/h (0 Bft) 0 min 0 min 4,4 km/h (1 Bft)
15.05.2012 21:42 17,6 C 8,5 C 0,0 UV-I 0,0 C 48 % 85 % 0 % 1012,4 hPa 0,0 l/m 0,8 km/h (0 Bft) 0 min 0 min 0,0 km/h (0 Bft)
15.05.2012 21:44 17,6 C 8,5 C 0,0 UV-I 0,0 C 48 % 86 % 0 % 1012,4 hPa 0,0 l/m 0,8 km/h (0 Bft) 0 min 0 min 0,0 km/h (0 Bft)
15.05.2012 21:46 17,6 C 8,5 C 0,0 UV-I 0,0 C 48 % 86 % 0 % 1012,4 hPa 0,0 l/m 1,6 km/h (1 Bft) 0 min 0 min 10,4 km/h (2 Bft)
15.05.2012 21:48 17,6 C 8,5 C 0,0 UV-I 0,0 C 48 % 86 % 0 % 1012,4 hPa 0,0 l/m 1,2 km/h (1 Bft) 0 min 0 min 10,4 km/h (2 Bft)
15.05.2012 21:50 17,6 C 8,5 C 0,0 UV-I 0,0 C 48 % 86 % 0 % 1012,4 hPa 0,0 l/m 2,0 km/h (1 Bft) 0 min 0 min 9,6 km/h (2 Bft)
15.05.2012 21:52 17,5 C 8,5 C 0,0 UV-I 0,0 C 48 % 86 % 0 % 1012,4 hPa 0,0 l/m 2,8 km/h (1 Bft) 0 min 0 min 10,0 km/h (2 Bft)
15.05.2012 21:54 17,6 C 8,5 C 0,0 UV-I 0,0 C 48 % 86 % 0 % 1012,4 hPa 0,0 l/m 3,2 km/h (1 Bft) 0 min 0 min 10,0 km/h (2 Bft)
15.05.2012 21:56 17,5 C 8,5 C 0,0 UV-I 0,0 C 48 % 86 % 0 % 1012,4 hPa 0,0 l/m 3,6 km/h (1 Bft) 0 min 0 min 5,2 km/h (1 Bft)
15.05.2012 21:58 17,5 C 8,5 C 0,0 UV-I 0,0 C 48 % 86 % 0 % 1012,6 hPa 0,0 l/m 3,2 km/h (1 Bft) 0 min 0 min 0,0 km/h (0 Bft)
15.05.2012 22:00 17,5 C 8,5 C 0,0 UV-I 0,0 C 48 % 86 % 0 % 1012,6 hPa 0,0 l/m 3,6 km/h (1 Bft) 0 min 0 min 0,0 km/h (0 Bft)
15.05.2012 22:02 17,5 C 8,5 C 0,0 UV-I 0,0 C 48 % 86 % 0 % 1012,6 hPa 0,0 l/m 2,8 km/h (1 Bft) 0 min 0 min 0,0 km/h (0 Bft)
15.05.2012 22:04 17,5 C 8,5 C 0,0 UV-I 0,0 C 48 % 86 % 0 % 1012,6 hPa 0,0 l/m 2,4 km/h (1 Bft) 0 min 0 min 8,4 km/h (2 Bft)
15.05.2012 22:06 17,5 C 8,5 C 0,0 UV-I 0,0 C 49 % 86 % 0 % 1012,6 hPa 0,0 l/m 2,0 km/h (1 Bft) 0 min 0 min 8,4 km/h (2 Bft)
15.05.2012 22:08 17,5 C 8,5 C 0,0 UV-I 0,0 C 49 % 86 % 0 % 1012,6 hPa 0,0 l/m 2,0 km/h (1 Bft) 0 min 0 min 14,9 km/h (3 Bft)
15.05.2012 22:10 17,5 C 8,5 C 0,0 UV-I 0,0 C 49 % 87 % 0 % 1012,6 hPa 0,0 l/m 2,4 km/h (1 Bft) 0 min 0 min 14,9 km/h (3 Bft)
15.05.2012 22:12 17,4 C 8,5 C 0,0 UV-I 0,0 C 49 % 87 % 0 % 1012,6 hPa 0,0 l/m 2,8 km/h (1 Bft) 0 min 0 min 9,2 km/h (2 Bft)
15.05.2012 22:14 17,4 C 8,5 C 0,0 UV-I 0,0 C 49 % 87 % 0 % 1012,6 hPa 0,0 l/m 3,6 km/h (1 Bft) 0 min 0 min 9,2 km/h (2 Bft)
15.05.2012 22:16 17,4 C 8,5 C 0,0 UV-I 0,0 C 49 % 87 % 0 % 1012,6 hPa 0,0 l/m 3,6 km/h (1 Bft) 0 min 0 min 5,6 km/h (1 Bft)
15.05.2012 22:18 17,4 C 8,5 C 0,0 UV-I 0,0 C 49 % 87 % 0 % 1013,1 hPa 0,0 l/m 4,8 km/h (1 Bft) 0 min 0 min 8,0 km/h (2 Bft)
15.05.2012 22:20 17,4 C 8,5 C 0,0 UV-I 0,0 C 49 % 87 % 0 % 1013,1 hPa 0,0 l/m 4,0 km/h (1 Bft) 0 min 0 min 8,0 km/h (2 Bft)
15.05.2012 22:22 17,4 C 8,5 C 0,0 UV-I 0,0 C 49 % 87 % 0 % 1013,1 hPa 0,0 l/m 4,0 km/h (1 Bft) 0 min 0 min 6,0 km/h (2 Bft)
15.05.2012 22:24 17,4 C 8,5 C 0,0 UV-I 0,0 C 49 % 87 % 0 % 1013,1 hPa 0,0 l/m 3,6 km/h (1 Bft) 0 min 0 min 6,0 km/h (2 Bft)
15.05.2012 22:26 17,4 C 8,5 C 0,0 UV-I 0,0 C 49 % 87 % 0 % 1013,1 hPa 0,0 l/m 2,8 km/h (1 Bft) 0 min 0 min 4,8 km/h (1 Bft)
15.05.2012 22:28 17,4 C 8,5 C 0,0 UV-I 0,0 C 49 % 87 % 0 % 1013,1 hPa 0,0 l/m 2,0 km/h (1 Bft) 0 min 0 min 0,0 km/h (0 Bft)
15.05.2012 22:30 17,4 C 8,5 C 0,0 UV-I 0,0 C 49 % 87 % 0 % 1013,1 hPa 0,0 l/m 1,6 km/h (1 Bft) 0 min 0 min 5,2 km/h (1 Bft)
15.05.2012 22:32 17,2 C 8,5 C 0,0 UV-I 0,0 C 49 % 88 % 0 % 1013,1 hPa 0,0 l/m 2,0 km/h (1 Bft) 0 min 0 min 8,0 km/h (2 Bft)
15.05.2012 22:34 17,2 C 8,4 C 0,0 UV-I 0,0 C 49 % 88 % 0 % 1013,1 hPa 0,0 l/m 2,0 km/h (1 Bft) 0 min 0 min 10,4 km/h (2 Bft)
15.05.2012 22:36 17,2 C 8,4 C 0,0 UV-I 0,0 C 49 % 88 % 0 % 1013,1 hPa 0,0 l/m 2,0 km/h (1 Bft) 0 min 0 min 10,4 km/h (2 Bft)
15.05.2012 22:38 17,2 C 8,5 C 0,0 UV-I 0,0 C 49 % 88 % 0 % 1013,4 hPa 0,0 l/m 2,0 km/h (1 Bft) 0 min 0 min 0,0 km/h (0 Bft)
15.05.2012 22:40 17,3 C 8,4 C 0,0 UV-I 0,0 C 49 % 88 % 0 % 1013,4 hPa 0,0 l/m 2,8 km/h (1 Bft) 0 min 0 min 0,0 km/h (0 Bft)
15.05.2012 22:42 17,3 C 8,4 C 0,0 UV-I 0,0 C 49 % 88 % 0 % 1013,4 hPa 0,0 l/m 3,2 km/h (1 Bft) 0 min 0 min 6,0 km/h (2 Bft)
15.05.2012 22:44 17,3 C 8,4 C 0,0 UV-I 0,0 C 49 % 88 % 0 % 1013,4 hPa 0,0 l/m 4,0 km/h (1 Bft) 0 min 0 min 9,6 km/h (2 Bft)
15.05.2012 22:46 17,3 C 8,3 C 0,0 UV-I 0,0 C 49 % 88 % 0 % 1013,4 hPa 0,0 l/m 4,0 km/h (1 Bft) 0 min 0 min 9,6 km/h (2 Bft)
15.05.2012 22:48 17,2 C 8,3 C 0,0 UV-I 0,0 C 49 % 88 % 0 % 1013,4 hPa 0,0 l/m 4,4 km/h (1 Bft) 0 min 0 min 5,6 km/h (1 Bft)
15.05.2012 22:50 17,2 C 8,2 C 0,0 UV-I 0,0 C 50 % 88 % 0 % 1013,4 hPa 0,0 l/m 5,2 km/h (1 Bft) 0 min 0 min 5,6 km/h (1 Bft)
15.05.2012 22:52 17,2 C 8,3 C 0,0 UV-I 0,0 C 49 % 88 % 0 % 1013,4 hPa 0,0 l/m 4,8 km/h (1 Bft) 0 min 0 min 9,6 km/h (2 Bft)
15.05.2012 22:54 17,2 C 8,3 C 0,0 UV-I 0,0 C 50 % 88 % 0 % 1013,4 hPa 0,0 l/m 4,8 km/h (1 Bft) 0 min 0 min 10,4 km/h (2 Bft)
15.05.2012 22:56 17,2 C 8,2 C 0,0 UV-I 0,0 C 50 % 89 % 0 % 1013,4 hPa 0,0 l/m 5,2 km/h (1 Bft) 0 min 0 min 10,4 km/h (2 Bft)
15.05.2012 22:58 17,2 C 8,1 C 0,0 UV-I 0,0 C 50 % 89 % 0 % 1013,2 hPa 0,0 l/m 5,2 km/h (1 Bft) 0 min 0 min 9,6 km/h (2 Bft)
15.05.2012 23:00 17,2 C 8,1 C 0,0 UV-I 0,0 C 50 % 89 % 0 % 1013,2 hPa 0,0 l/m 4,4 km/h (1 Bft) 0 min 0 min 11,2 km/h (2 Bft)
15.05.2012 23:02 17,2 C 8,1 C 0,0 UV-I 0,0 C 50 % 89 % 0 % 1013,2 hPa 0,0 l/m 5,6 km/h (1 Bft) 0 min 0 min 12,0 km/h (2 Bft)
15.05.2012 23:04 17,1 C 8,1 C 0,0 UV-I 0,0 C 50 % 89 % 0 % 1013,2 hPa 0,0 l/m 5,2 km/h (1 Bft) 0 min 0 min 0,0 km/h (0 Bft)
15.05.2012 23:06 17,1 C 8,0 C 0,0 UV-I 0,0 C 50 % 89 % 0 % 1013,2 hPa 0,0 l/m 4,0 km/h (1 Bft) 0 min 0 min 10,4 km/h (2 Bft)
15.05.2012 23:08 17,1 C 8,0 C 0,0 UV-I 0,0 C 50 % 89 % 0 % 1013,2 hPa 0,0 l/m 3,6 km/h (1 Bft) 0 min 0 min 10,4 km/h (2 Bft)
15.05.2012 23:10 17,1 C 8,0 C 0,0 UV-I 0,0 C 50 % 89 % 0 % 1013,2 hPa 0,0 l/m 4,8 km/h (1 Bft) 0 min 0 min 13,3 km/h (3 Bft)
15.05.2012 23:12 17,1 C 8,0 C 0,0 UV-I 0,0 C 50 % 89 % 0 % 1013,2 hPa 0,0 l/m 4,0 km/h (1 Bft) 0 min 0 min 13,3 km/h (3 Bft)
15.05.2012 23:14 17,1 C 7,9 C 0,0 UV-I 0,0 C 50 % 89 % 0 % 1013,2 hPa 0,0 l/m 2,8 km/h (1 Bft) 0 min 0 min 4,4 km/h (1 Bft)
15.05.2012 23:16 17,0 C 7,9 C 0,0 UV-I 0,0 C 50 % 90 % 0 % 1013,2 hPa 0,0 l/m 3,2 km/h (1 Bft) 0 min 0 min 0,0 km/h (0 Bft)
15.05.2012 23:18 17,0 C 7,9 C 0,0 UV-I 0,0 C 50 % 90 % 0 % 1013,6 hPa 0,0 l/m 2,8 km/h (1 Bft) 0 min 0 min 5,2 km/h (1 Bft)
15.05.2012 23:20 17,0 C 7,9 C 0,0 UV-I 0,0 C 50 % 90 % 0 % 1013,6 hPa 0,0 l/m 2,4 km/h (1 Bft) 0 min 0 min 5,2 km/h (1 Bft)
15.05.2012 23:22 17,0 C 7,9 C 0,0 UV-I 0,0 C 50 % 90 % 0 % 1013,6 hPa 0,0 l/m 2,4 km/h (1 Bft) 0 min 0 min 5,2 km/h (1 Bft)
15.05.2012 23:24 17,0 C 7,9 C 0,0 UV-I 0,0 C 51 % 90 % 0 % 1013,6 hPa 0,0 l/m 2,0 km/h (1 Bft) 0 min 0 min 5,2 km/h (1 Bft)
15.05.2012 23:26 17,0 C 7,9 C 0,0 UV-I 0,0 C 50 % 90 % 0 % 1013,6 hPa 0,0 l/m 2,8 km/h (1 Bft) 0 min 0 min 6,4 km/h (2 Bft)
15.05.2012 23:28 17,0 C 7,9 C 0,0 UV-I 0,0 C 51 % 90 % 0 % 1013,6 hPa 0,0 l/m 2,8 km/h (1 Bft) 0 min 2 min 6,4 km/h (2 Bft)
15.05.2012 23:30 17,0 C 7,9 C 0,0 UV-I 0,0 C 51 % 90 % 0 % 1013,6 hPa 0,0 l/m 2,8 km/h (1 Bft) 0 min 2 min 4,8 km/h (1 Bft)
15.05.2012 23:32 17,0 C 7,9 C 0,0 UV-I 0,0 C 51 % 91 % 0 % 1013,6 hPa 0,1 l/m 4,0 km/h (1 Bft) 0 min 2 min 10,0 km/h (2 Bft)
15.05.2012 23:34 16,9 C 7,9 C 0,0 UV-I 0,0 C 51 % 91 % 0 % 1013,6 hPa 0,0 l/m 5,2 km/h (1 Bft) 0 min 2 min 17,3 km/h (3 Bft)
15.05.2012 23:36 16,9 C 7,8 C 0,0 UV-I 0,0 C 51 % 91 % 0 % 1013,6 hPa 0,0 l/m 5,2 km/h (1 Bft) 0 min 2 min 17,3 km/h (3 Bft)
15.05.2012 23:38 16,9 C 7,9 C 0,0 UV-I 0,0 C 51 % 90 % 0 % 1013,9 hPa 0,1 l/m 4,8 km/h (1 Bft) 0 min 2 min 5,6 km/h (1 Bft)
15.05.2012 23:40 16,9 C 7,7 C 0,0 UV-I 0,0 C 51 % 91 % 0 % 1013,9 hPa 0,0 l/m 4,4 km/h (1 Bft) 0 min 2 min 5,6 km/h (1 Bft)
15.05.2012 23:42 16,9 C 7,7 C 0,0 UV-I 0,0 C 52 % 91 % 0 % 1013,9 hPa 0,0 l/m 3,6 km/h (1 Bft) 0 min 0 min 0,0 km/h (0 Bft)
15.05.2012 23:44 16,9 C 7,7 C 0,0 UV-I 0,0 C 52 % 91 % 0 % 1013,9 hPa 0,1 l/m 2,4 km/h (1 Bft) 0 min 0 min 0,0 km/h (0 Bft)
15.05.2012 23:46 16,9 C 7,7 C 0,0 UV-I 0,0 C 52 % 91 % 0 % 1013,9 hPa 0,0 l/m 2,4 km/h (1 Bft) 0 min 0 min 12,4 km/h (3 Bft)
15.05.2012 23:48 16,9 C 7,7 C 0,0 UV-I 0,0 C 52 % 91 % 0 % 1013,9 hPa 0,1 l/m 3,6 km/h (1 Bft) 0 min 0 min 12,4 km/h (3 Bft)
15.05.2012 23:50 16,9 C 7,7 C 0,0 UV-I 0,0 C 52 % 91 % 0 % 1013,9 hPa 0,0 l/m 4,0 km/h (1 Bft) 0 min 2 min 9,2 km/h (2 Bft)
15.05.2012 23:52 16,9 C 7,6 C 0,0 UV-I 0,0 C 52 % 91 % 0 % 1013,9 hPa 0,0 l/m 4,0 km/h (1 Bft) 0 min 2 min 0,0 km/h (0 Bft)
15.05.2012 23:54 16,9 C 7,6 C 0,0 UV-I 0,0 C 52 % 91 % 0 % 1013,9 hPa 0,1 l/m 4,4 km/h (1 Bft) 0 min 2 min 4,0 km/h (1 Bft)
15.05.2012 23:56 16,9 C 7,6 C 0,0 UV-I 0,0 C 52 % 91 % 0 % 1013,9 hPa 0,0 l/m 4,0 km/h (1 Bft) 0 min 2 min 4,4 km/h (1 Bft)
15.05.2012 23:58 16,9 C 7,6 C 0,0 UV-I 0,0 C 52 % 91 % 0 % 1013,9 hPa 0,0 l/m 3,6 km/h (1 Bft) 0 min 0 min 12,0 km/h (2 Bft)
_ Min-Zeit 23:34 13:12 00:00 00:00 00:00 11:34 00:00 11:38 - 00:00 - - 00:00
Minimum _ 16,9 C 7,5 C 0,0 UV-I 0,0 C 42 % 64 % 0 % 1007,6 hPa - 0,0 km/h (0 Bft) - - 0,0 km/h (0 Bft)
_ Max-Zeit 00:00 12:06 10:54 11:26 23:42 23:32 09:18 23:38 12:40 12:18 09:18 04:16 12:30
Maximum _ 19,6 C 13,6 C 4,1 UV-I 7,6 C 52 % 91 % 100 % 1013,9 hPa 0,4 l/m 13,3 km/h
W-SW (3 Bft)
2 min 2 min 33,3 km/h
W-SW (5 Bft)
Durchschnitt _ 18,3 C 9,6 C 0,5 UV-I 1,2 C 47 % 82 % 27 % 1010,2 hPa #6,4 l/m 3,5 km/h (1 Bft) #3:52 h #2:28 h 7,0 km/h (2 Bft)
© 2012 W. Hausmann